Time,TemperatureF,DewpointF,PressureIn,WindDirection,WindDirectionDegrees,WindSpeedMPH,WindSpeedGustMPH,Humidity,HourlyPrecipIn,Conditions,Clouds,dailyrainin,SoftwareType,DateUTC
2012-12-01 00:00:00,42.1,42.1,30.45,SE,135,3.0,3.0,0,0.00,,,0.00,meteohub,2012-12-01 05:00:00,
2012-12-01 00:02:00,42.1,42.1,30.46,SE,135,3.0,3.0,0,0.00,,,0.00,meteohub,2012-12-01 05:02:00,
2012-12-01 00:05:00,42.1,42.1,30.45,SE,135,3.0,3.0,0,0.00,,,0.00,meteohub,2012-12-01 05:05:00,
2012-12-01 00:06:00,42.1,42.1,30.45,SE,135,3.0,3.0,0,0.00,,,0.00,meteohub,2012-12-01 05:06:00,
2012-12-01 00:08:00,42.1,42.1,30.45,SE,135,3.0,3.0,0,0.00,,,0.00,meteohub,2012-12-01 05:08:00,
2012-12-01 00:10:00,42.1,42.1,30.45,SE,135,2.0,3.0,0,0.00,,,0.00,meteohub,2012-12-01 05:10:00,
2012-12-01 00:12:00,42.1,42.1,30.45,SE,135,4.0,4.0,0,0.00,,,0.00,meteohub,2012-12-01 05:12:00,
2012-12-01 00:14:00,42.1,42.1,30.45,East,90,4.0,4.0,0,0.00,,,0.00,meteohub,2012-12-01 05:14:00,
2012-12-01 00:15:00,41.9,41.9,30.45,SE,135,4.0,4.0,0,0.00,,,0.00,meteohub,2012-12-01 05:15:00,
2012-12-01 00:17:00,41.9,41.9,30.45,SE,135,3.0,4.0,0,0.00,,,0.00,meteohub,2012-12-01 05:17:00,
2012-12-01 00:19:00,41.9,41.9,30.45,SE,135,3.0,4.0,0,0.00,,,0.00,meteohub,2012-12-01 05:19:00,
2012-12-01 00:21:00,41.7,41.7,30.45,SE,135,3.0,4.0,0,0.00,,,0.00,meteohub,2012-12-01 05:21:00,
2012-12-01 00:22:00,41.7,41.7,30.45,SE,135,4.0,4.0,0,0.00,,,0.00,meteohub,2012-12-01 05:22:00,
2012-12-01 00:26:00,41.5,41.5,30.45,SE,135,3.0,4.0,0,0.00,,,0.00,meteohub,2012-12-01 05:26:00,
2012-12-01 00:27:00,41.5,41.5,30.45,SE,135,3.0,4.0,0,0.00,,,0.00,meteohub,2012-12-01 05:27:00,
2012-12-01 00:28:00,41.4,41.4,30.45,SE,135,3.0,4.0,0,0.00,,,0.00,meteohub,2012-12-01 05:28:00,
2012-12-01 00:31:00,41.4,41.4,30.45,SE,135,3.0,4.0,0,0.00,,,0.00,meteohub,2012-12-01 05:31:00,
2012-12-01 00:32:00,41.2,41.2,30.45,SE,135,3.0,4.0,0,0.00,,,0.00,meteohub,2012-12-01 05:32:00,
2012-12-01 00:34:00,41.2,41.2,30.45,SE,135,3.0,4.0,0,0.00,,,0.00,meteohub,2012-12-01 05:34:00,
2012-12-01 00:36:00,41.0,41.0,30.45,SE,135,3.0,4.0,0,0.00,,,0.00,meteohub,2012-12-01 05:36:00,
2012-12-01 00:37:00,41.0,41.0,30.45,SE,135,3.0,4.0,0,0.00,,,0.00,meteohub,2012-12-01 05:37:00,
2012-12-01 00:38:00,41.0,41.0,30.45,East,90,3.0,4.0,0,0.00,,,0.00,meteohub,2012-12-01 05:38:00,
2012-12-01 00:40:00,41.0,41.0,30.45,SE,135,3.0,4.0,0,0.00,,,0.00,meteohub,2012-12-01 05:40:00,
2012-12-01 00:42:00,41.0,41.0,30.45,East,90,2.0,4.0,0,0.00,,,0.00,meteohub,2012-12-01 05:42:00,
2012-12-01 00:43:00,40.8,40.8,30.45,SE,135,2.0,4.0,0,0.00,,,0.00,meteohub,2012-12-01 05:43:00,
2012-12-01 00:45:00,40.8,40.8,30.45,SE,135,2.0,4.0,0,0.00,,,0.00,meteohub,2012-12-01 05:45:00,
2012-12-01 00:48:00,40.6,40.6,30.45,SE,135,2.0,4.0,0,0.00,,,0.00,meteohub,2012-12-01 05:48:00,
2012-12-01 00:49:00,40.6,40.6,30.45,SE,135,2.0,4.0,0,0.00,,,0.00,meteohub,2012-12-01 05:49:00,
2012-12-01 00:52:00,40.6,40.6,30.45,SE,135,3.0,3.0,0,0.00,,,0.00,meteohub,2012-12-01 05:52:00,
2012-12-01 00:53:00,40.5,40.5,30.45,SE,135,3.0,3.0,0,0.00,,,0.00,meteohub,2012-12-01 05:53:00,
2012-12-01 00:57:00,40.5,40.5,30.44,SE,135,3.0,3.0,0,0.00,,,0.00,meteohub,2012-12-01 05:57:00,
2012-12-01 00:58:00,40.5,40.5,30.44,SE,135,2.0,3.0,0,0.00,,,0.00,meteohub,2012-12-01 05:58:00,
2012-12-01 00:59:00,40.5,40.5,30.45,South,180,2.0,3.0,0,0.00,,,0.00,meteohub,2012-12-01 05:59:00,
2012-12-01 01:02:00,40.5,40.5,30.45,South,180,2.0,4.0,0,0.00,,,0.00,meteohub,2012-12-01 06:02:00,
2012-12-01 01:03:00,40.5,40.5,30.44,South,180,2.0,4.0,0,0.00,,,0.00,meteohub,2012-12-01 06:03:00,
2012-12-01 01:04:00,40.5,40.5,30.45,South,180,2.0,4.0,0,0.00,,,0.00,meteohub,2012-12-01 06:04:00,
2012-12-01 01:05:00,40.5,40.5,30.44,South,180,2.0,4.0,0,0.00,,,0.00,meteohub,2012-12-01 06:05:00,
2012-12-01 01:08:00,39.9,39.9,30.45,SE,135,3.0,4.0,0,0.00,,,0.00,meteohub,2012-12-01 06:08:00,
2012-12-01 01:10:00,39.9,39.9,30.44,SE,135,3.0,4.0,0,0.00,,,0.00,meteohub,2012-12-01 06:10:00,
2012-12-01 01:11:00,39.9,39.9,30.44,SE,135,3.0,4.0,0,0.00,,,0.00,meteohub,2012-12-01 06:11:00,
2012-12-01 01:13:00,39.7,39.7,30.44,SE,135,3.0,4.0,0,0.00,,,0.00,meteohub,2012-12-01 06:13:00,
2012-12-01 01:14:00,39.7,39.7,30.45,SE,135,2.0,4.0,0,0.00,,,0.00,meteohub,2012-12-01 06:14:00,
2012-12-01 01:15:00,39.7,39.7,30.45,SE,135,3.0,3.0,0,0.00,,,0.00,meteohub,2012-12-01 06:15:00,
2012-12-01 01:16:00,39.7,39.7,30.44,SE,135,3.0,3.0,0,0.00,,,0.00,meteohub,2012-12-01 06:16:00,
2012-12-01 01:18:00,39.7,39.7,30.44,SE,135,3.0,3.0,0,0.00,,,0.00,meteohub,2012-12-01 06:18:00,
2012-12-01 01:20:00,39.9,39.9,30.45,SE,135,3.0,3.0,0,0.00,,,0.00,meteohub,2012-12-01 06:20:00,
2012-12-01 01:22:00,39.9,39.9,30.44,SE,135,3.0,3.0,0,0.00,,,0.00,meteohub,2012-12-01 06:22:00,
2012-12-01 01:24:00,39.9,39.9,30.44,SE,135,4.0,4.0,0,0.00,,,0.00,meteohub,2012-12-01 06:24:00,
2012-12-01 01:26:00,39.9,39.9,30.45,SE,135,3.0,4.0,0,0.00,,,0.00,meteohub,2012-12-01 06:26:00,
2012-12-01 01:27:00,39.9,39.9,30.44,SE,135,3.0,4.0,0,0.00,,,0.00,meteohub,2012-12-01 06:27:00,
2012-12-01 01:30:00,39.7,39.7,30.44,SE,135,3.0,4.0,0,0.00,,,0.00,meteohub,2012-12-01 06:30:00,
2012-12-01 01:31:00,39.7,39.7,30.45,SE,135,3.0,4.0,0,0.00,,,0.00,meteohub,2012-12-01 06:31:00,
2012-12-01 01:32:00,39.7,39.7,30.44,SE,135,3.0,4.0,0,0.00,,,0.00,meteohub,2012-12-01 06:32:00,
2012-12-01 01:35:00,39.7,39.7,30.45,SE,135,3.0,4.0,0,0.00,,,0.00,meteohub,2012-12-01 06:35:00,
2012-12-01 01:37:00,39.7,39.7,30.45,SE,135,3.0,4.0,0,0.00,,,0.00,meteohub,2012-12-01 06:37:00,
2012-12-01 01:38:00,39.7,39.7,30.45,SE,135,3.0,4.0,0,0.00,,,0.00,meteohub,2012-12-01 06:38:00,
2012-12-01 01:41:00,39.7,39.7,30.44,SE,135,3.0,3.0,0,0.00,,,0.00,meteohub,2012-12-01 06:41:00,
2012-12-01 01:43:00,39.7,39.7,30.45,SE,135,3.0,3.0,0,0.00,,,0.00,meteohub,2012-12-01 06:43:00,
2012-12-01 01:46:00,39.6,39.6,30.45,SE,135,3.0,3.0,0,0.00,,,0.00,meteohub,2012-12-01 06:46:00,
2012-12-01 01:48:00,39.6,39.6,30.45,SE,135,3.0,3.0,0,0.00,,,0.00,meteohub,2012-12-01 06:48:00,
2012-12-01 01:49:00,39.4,39.4,30.45,SE,135,3.0,3.0,0,0.00,,,0.00,meteohub,2012-12-01 06:49:00,
2012-12-01 01:52:00,39.6,39.6,30.45,SE,135,3.0,3.0,0,0.00,,,0.00,meteohub,2012-12-01 06:52:00,
2012-12-01 01:53:00,39.4,39.4,30.45,SE,135,3.0,3.0,0,0.00,,,0.00,meteohub,2012-12-01 06:53:00,
2012-12-01 01:54:00,39.6,39.6,30.45,SE,135,2.0,3.0,0,0.00,,,0.00,meteohub,2012-12-01 06:54:00,
2012-12-01 01:57:00,39.6,39.6,30.45,SE,135,3.0,4.0,0,0.00,,,0.00,meteohub,2012-12-01 06:57:00,
2012-12-01 01:58:00,39.6,39.6,30.45,SE,135,2.0,4.0,0,0.00,,,0.00,meteohub,2012-12-01 06:58:00,
2012-12-01 01:59:00,39.6,39.6,30.45,SE,135,2.0,4.0,0,0.00,,,0.00,meteohub,2012-12-01 06:59:00,
2012-12-01 02:00:00,39.6,39.6,30.45,SE,135,2.0,4.0,0,0.00,,,0.00,meteohub,2012-12-01 07:00:00,
2012-12-01 02:02:00,39.6,39.6,30.45,SE,135,2.0,4.0,0,0.00,,,0.00,meteohub,2012-12-01 07:02:00,
2012-12-01 02:03:00,39.6,39.6,30.46,SE,135,2.0,4.0,0,0.00,,,0.00,meteohub,2012-12-01 07:03:00,
2012-12-01 02:05:00,39.6,39.6,30.45,SE,135,2.0,4.0,0,0.00,,,0.00,meteohub,2012-12-01 07:05:00,
2012-12-01 02:08:00,39.7,39.7,30.45,SE,135,3.0,4.0,0,0.00,,,0.00,meteohub,2012-12-01 07:08:00,
2012-12-01 02:11:00,40.1,40.1,30.45,SE,135,3.0,3.0,0,0.00,,,0.00,meteohub,2012-12-01 07:11:00,
2012-12-01 02:13:00,40.5,40.5,30.45,SE,135,2.0,3.0,0,0.00,,,0.00,meteohub,2012-12-01 07:13:00,
2012-12-01 02:16:00,40.6,40.6,30.45,SE,135,3.0,4.0,0,0.00,,,0.00,meteohub,2012-12-01 07:16:00,
2012-12-01 02:17:00,40.6,40.6,30.45,SE,135,3.0,4.0,0,0.00,,,0.00,meteohub,2012-12-01 07:17:00,
2012-12-01 02:18:00,40.6,40.6,30.45,SE,135,4.0,4.0,0,0.00,,,0.00,meteohub,2012-12-01 07:18:00,
2012-12-01 02:19:00,40.6,40.6,30.45,SE,135,4.0,4.0,0,0.00,,,0.00,meteohub,2012-12-01 07:19:00,
2012-12-01 02:22:00,40.6,40.6,30.45,SE,135,3.0,4.0,0,0.00,,,0.00,meteohub,2012-12-01 07:22:00,
2012-12-01 02:24:00,40.6,40.6,30.45,SE,135,3.0,4.0,0,0.00,,,0.00,meteohub,2012-12-01 07:24:00,
2012-12-01 02:26:00,40.6,40.6,30.45,SE,135,3.0,4.0,0,0.00,,,0.00,meteohub,2012-12-01 07:26:00,
2012-12-01 02:27:00,40.6,40.6,30.46,SE,135,3.0,4.0,0,0.00,,,0.00,meteohub,2012-12-01 07:27:00,
2012-12-01 02:28:00,40.6,40.6,30.46,SE,135,3.0,4.0,0,0.00,,,0.00,meteohub,2012-12-01 07:28:00,
2012-12-01 02:30:00,40.5,40.5,30.46,SE,135,3.0,4.0,0,0.00,,,0.00,meteohub,2012-12-01 07:30:00,
2012-12-01 02:32:00,40.5,40.5,30.46,SE,135,3.0,4.0,0,0.00,,,0.00,meteohub,2012-12-01 07:32:00,
2012-12-01 02:35:00,40.3,40.3,30.45,SE,135,4.0,4.0,0,0.00,,,0.00,meteohub,2012-12-01 07:35:00,
2012-12-01 02:37:00,40.3,40.3,30.46,SE,135,4.0,4.0,0,0.00,,,0.00,meteohub,2012-12-01 07:37:00,
2012-12-01 02:38:00,40.3,40.3,30.46,SE,135,3.0,4.0,0,0.00,,,0.00,meteohub,2012-12-01 07:38:00,
2012-12-01 02:41:00,40.1,40.1,30.45,SE,135,3.0,4.0,0,0.00,,,0.00,meteohub,2012-12-01 07:41:00,
2012-12-01 02:42:00,40.1,40.1,30.45,SE,135,3.0,4.0,0,0.00,,,0.00,meteohub,2012-12-01 07:42:00,
2012-12-01 02:43:00,39.9,39.9,30.45,SE,135,3.0,4.0,0,0.00,,,0.00,meteohub,2012-12-01 07:43:00,
2012-12-01 02:47:00,39.7,39.7,30.45,SE,135,4.0,4.0,0,0.00,,,0.00,meteohub,2012-12-01 07:47:00,
2012-12-01 02:48:00,39.6,39.6,30.45,SE,135,3.0,4.0,0,0.00,,,0.00,meteohub,2012-12-01 07:48:00,
2012-12-01 02:49:00,39.6,39.6,30.45,East,90,3.0,4.0,0,0.00,,,0.00,meteohub,2012-12-01 07:49:00,
2012-12-01 02:52:00,39.4,39.4,30.45,SE,135,3.0,4.0,0,0.00,,,0.00,meteohub,2012-12-01 07:52:00,
2012-12-01 02:53:00,39.2,39.2,30.45,SE,135,3.0,4.0,0,0.00,,,0.00,meteohub,2012-12-01 07:53:00,
2012-12-01 02:55:00,39.2,39.2,30.45,East,90,2.0,4.0,0,0.00,,,0.00,meteohub,2012-12-01 07:55:00,
2012-12-01 02:57:00,39.0,39.0,30.45,SE,135,2.0,4.0,0,0.00,,,0.00,meteohub,2012-12-01 07:57:00,
2012-12-01 02:58:00,39.0,39.0,30.45,East,90,3.0,4.0,0,0.00,,,0.00,meteohub,2012-12-01 07:58:00,
2012-12-01 02:59:00,39.0,39.0,30.45,East,90,3.0,4.0,0,0.00,,,0.00,meteohub,2012-12-01 07:59:00,
2012-12-01 03:00:00,39.0,39.0,30.45,SE,135,3.0,4.0,0,0.00,,,0.00,meteohub,2012-12-01 08:00:00,
2012-12-01 03:03:00,39.0,39.0,30.45,SE,135,3.0,4.0,0,0.00,,,0.00,meteohub,2012-12-01 08:03:00,
2012-12-01 03:04:00,39.0,39.0,30.45,SE,135,3.0,4.0,0,0.00,,,0.00,meteohub,2012-12-01 08:04:00,
2012-12-01 03:06:00,39.0,39.0,30.45,SE,135,3.0,4.0,0,0.00,,,0.00,meteohub,2012-12-01 08:06:00,
2012-12-01 03:08:00,38.8,38.8,30.45,SE,135,3.0,4.0,0,0.00,,,0.00,meteohub,2012-12-01 08:08:00,
2012-12-01 03:09:00,38.8,38.8,30.45,SE,135,3.0,4.0,0,0.00,,,0.00,meteohub,2012-12-01 08:09:00,
2012-12-01 03:12:00,38.8,38.8,30.45,SE,135,3.0,3.0,0,0.00,,,0.00,meteohub,2012-12-01 08:12:00,
2012-12-01 03:13:00,38.8,38.8,30.45,SE,135,3.0,3.0,0,0.00,,,0.00,meteohub,2012-12-01 08:13:00,
2012-12-01 03:14:00,38.8,38.8,30.45,SE,135,2.0,3.0,0,0.00,,,0.00,meteohub,2012-12-01 08:14:00,
2012-12-01 03:18:00,38.7,38.7,30.45,SE,135,3.0,4.0,0,0.00,,,0.00,meteohub,2012-12-01 08:18:00,
2012-12-01 03:19:00,38.7,38.7,30.45,SE,135,3.0,4.0,0,0.00,,,0.00,meteohub,2012-12-01 08:19:00,
2012-12-01 03:20:00,38.7,38.7,30.45,SE,135,3.0,4.0,0,0.00,,,0.00,meteohub,2012-12-01 08:20:00,
2012-12-01 03:24:00,38.7,38.7,30.45,SE,135,2.0,4.0,0,0.00,,,0.00,meteohub,2012-12-01 08:24:00,
2012-12-01 03:26:00,38.7,38.7,30.45,SE,135,3.0,3.0,0,0.00,,,0.00,meteohub,2012-12-01 08:26:00,
2012-12-01 03:27:00,38.7,38.7,30.45,SE,135,3.0,3.0,0,0.00,,,0.00,meteohub,2012-12-01 08:27:00,
2012-12-01 03:29:00,38.7,38.7,30.45,SE,135,3.0,3.0,0,0.00,,,0.00,meteohub,2012-12-01 08:29:00,
2012-12-01 03:30:00,38.7,38.7,30.45,SE,135,3.0,3.0,0,0.00,,,0.00,meteohub,2012-12-01 08:30:00,
2012-12-01 03:31:00,38.7,38.7,30.45,SE,135,3.0,3.0,0,0.00,,,0.00,meteohub,2012-12-01 08:31:00,
2012-12-01 03:32:00,38.7,38.7,30.45,SE,135,3.0,3.0,0,0.00,,,0.00,meteohub,2012-12-01 08:32:00,
2012-12-01 03:35:00,38.8,38.8,30.45,SE,135,3.0,4.0,0,0.00,,,0.00,meteohub,2012-12-01 08:35:00,
2012-12-01 03:36:00,38.8,38.8,30.45,SE,135,3.0,4.0,0,0.00,,,0.00,meteohub,2012-12-01 08:36:00,
2012-12-01 03:37:00,38.8,38.8,30.44,SE,135,4.0,4.0,0,0.00,,,0.00,meteohub,2012-12-01 08:37:00,
2012-12-01 03:38:00,38.8,38.8,30.44,SE,135,4.0,4.0,0,0.00,,,0.00,meteohub,2012-12-01 08:38:00,
2012-12-01 03:40:00,38.8,38.8,30.45,SE,135,2.0,4.0,0,0.00,,,0.00,meteohub,2012-12-01 08:40:00,
2012-12-01 03:41:00,38.8,38.8,30.45,SE,135,2.0,4.0,0,0.00,,,0.00,meteohub,2012-12-01 08:41:00,
2012-12-01 03:42:00,38.8,38.8,30.45,SE,135,4.0,4.0,0,0.00,,,0.00,meteohub,2012-12-01 08:42:00,
2012-12-01 03:43:00,38.8,38.8,30.45,SE,135,3.0,4.0,0,0.00,,,0.00,meteohub,2012-12-01 08:43:00,
2012-12-01 03:46:00,38.8,38.8,30.46,SE,135,3.0,4.0,0,0.00,,,0.00,meteohub,2012-12-01 08:46:00,
2012-12-01 03:47:00,38.8,38.8,30.45,SE,135,3.0,4.0,0,0.00,,,0.00,meteohub,2012-12-01 08:47:00,
2012-12-01 03:48:00,39.0,39.0,30.45,SE,135,3.0,4.0,0,0.00,,,0.00,meteohub,2012-12-01 08:48:00,
2012-12-01 03:51:00,39.0,39.0,30.45,SE,135,3.0,4.0,0,0.00,,,0.00,meteohub,2012-12-01 08:51:00,
2012-12-01 03:52:00,39.0,39.0,30.45,SE,135,3.0,4.0,0,0.00,,,0.00,meteohub,2012-12-01 08:52:00,
2012-12-01 03:53:00,39.0,39.0,30.45,SE,135,3.0,4.0,0,0.00,,,0.00,meteohub,2012-12-01 08:53:00,
2012-12-01 03:54:00,39.0,39.0,30.45,SE,135,3.0,4.0,0,0.00,,,0.00,meteohub,2012-12-01 08:54:00,
2012-12-01 03:58:00,39.0,39.0,30.45,SE,135,3.0,4.0,0,0.00,,,0.00,meteohub,2012-12-01 08:58:00,
2012-12-01 03:59:00,39.0,39.0,30.45,SE,135,3.0,4.0,0,0.00,,,0.00,meteohub,2012-12-01 08:59:00,
2012-12-01 04:03:00,39.0,39.0,30.45,SE,135,2.0,4.0,0,0.00,,,0.00,meteohub,2012-12-01 09:03:00,
2012-12-01 04:04:00,39.0,39.0,30.45,SE,135,3.0,4.0,0,0.00,,,0.00,meteohub,2012-12-01 09:04:00,
2012-12-01 04:05:00,39.0,39.0,30.45,SE,135,4.0,4.0,0,0.00,,,0.00,meteohub,2012-12-01 09:05:00,
2012-12-01 04:09:00,39.0,39.0,30.45,SE,135,3.0,4.0,0,0.00,,,0.00,meteohub,2012-12-01 09:09:00,
2012-12-01 04:10:00,39.0,39.0,30.45,SE,135,3.0,4.0,0,0.00,,,0.00,meteohub,2012-12-01 09:10:00,
2012-12-01 04:11:00,39.0,39.0,30.45,SE,135,3.0,4.0,0,0.00,,,0.00,meteohub,2012-12-01 09:11:00,
2012-12-01 04:14:00,39.0,39.0,30.45,SE,135,3.0,4.0,0,0.00,,,0.00,meteohub,2012-12-01 09:14:00,
2012-12-01 04:15:00,38.8,38.8,30.45,SE,135,3.0,4.0,0,0.00,,,0.00,meteohub,2012-12-01 09:15:00,
2012-12-01 04:16:00,38.8,38.8,30.45,SE,135,3.0,4.0,0,0.00,,,0.00,meteohub,2012-12-01 09:16:00,
2012-12-01 04:19:00,38.8,38.8,30.45,SE,135,4.0,4.0,0,0.00,,,0.00,meteohub,2012-12-01 09:19:00,
2012-12-01 04:20:00,38.8,38.8,30.45,SE,135,4.0,4.0,0,0.00,,,0.00,meteohub,2012-12-01 09:20:00,
2012-12-01 04:22:00,38.8,38.8,30.45,SE,135,3.0,4.0,0,0.00,,,0.00,meteohub,2012-12-01 09:22:00,
2012-12-01 04:23:00,39.0,39.0,30.45,SE,135,4.0,4.0,0,0.00,,,0.00,meteohub,2012-12-01 09:23:00,
2012-12-01 04:25:00,39.0,39.0,30.45,SE,135,4.0,4.0,0,0.00,,,0.00,meteohub,2012-12-01 09:25:00,
2012-12-01 04:28:00,39.0,39.0,30.45,SE,135,4.0,4.0,0,0.00,,,0.00,meteohub,2012-12-01 09:28:00,
2012-12-01 04:29:00,39.0,39.0,30.45,SE,135,4.0,4.0,0,0.00,,,0.00,meteohub,2012-12-01 09:29:00,
2012-12-01 04:30:00,39.2,39.2,30.45,SE,135,3.0,4.0,0,0.00,,,0.00,meteohub,2012-12-01 09:30:00,
2012-12-01 04:31:00,39.2,39.2,30.46,SE,135,3.0,4.0,0,0.00,,,0.00,meteohub,2012-12-01 09:31:00,
2012-12-01 04:33:00,39.2,39.2,30.46,SE,135,3.0,4.0,0,0.00,,,0.00,meteohub,2012-12-01 09:33:00,
2012-12-01 04:34:00,39.2,39.2,30.45,SE,135,3.0,4.0,0,0.00,,,0.00,meteohub,2012-12-01 09:34:00,
2012-12-01 04:35:00,39.2,39.2,30.45,SE,135,3.0,4.0,0,0.00,,,0.00,meteohub,2012-12-01 09:35:00,
2012-12-01 04:37:00,39.2,39.2,30.45,SE,135,3.0,4.0,0,0.00,,,0.00,meteohub,2012-12-01 09:37:00,
2012-12-01 04:38:00,39.2,39.2,30.45,SE,135,4.0,4.0,0,0.00,,,0.00,meteohub,2012-12-01 09:38:00,
2012-12-01 04:39:00,39.2,39.2,30.46,SE,135,3.0,4.0,0,0.00,,,0.00,meteohub,2012-12-01 09:39:00,
2012-12-01 04:40:00,39.2,39.2,30.45,SE,135,3.0,4.0,0,0.00,,,0.00,meteohub,2012-12-01 09:40:00,
2012-12-01 04:43:00,39.2,39.2,30.45,SE,135,3.0,4.0,0,0.00,,,0.00,meteohub,2012-12-01 09:43:00,
2012-12-01 04:44:00,39.2,39.2,30.45,SE,135,3.0,4.0,0,0.00,,,0.00,meteohub,2012-12-01 09:44:00,
2012-12-01 04:46:00,39.2,39.2,30.46,SE,135,4.0,4.0,0,0.00,,,0.00,meteohub,2012-12-01 09:46:00,
2012-12-01 04:49:00,39.2,39.2,30.46,SE,135,4.0,4.0,0,0.00,,,0.00,meteohub,2012-12-01 09:49:00,
2012-12-01 04:50:00,39.2,39.2,30.46,SE,135,4.0,4.0,0,0.00,,,0.00,meteohub,2012-12-01 09:50:00,
2012-12-01 04:52:00,39.2,39.2,30.46,SE,135,4.0,4.0,0,0.00,,,0.00,meteohub,2012-12-01 09:52:00,
2012-12-01 04:54:00,39.2,39.2,30.46,SE,135,3.0,4.0,0,0.00,,,0.00,meteohub,2012-12-01 09:54:00,
2012-12-01 04:55:00,39.2,39.2,30.46,SE,135,3.0,4.0,0,0.00,,,0.00,meteohub,2012-12-01 09:55:00,
2012-12-01 04:57:00,39.0,39.0,30.46,SE,135,2.0,4.0,0,0.00,,,0.00,meteohub,2012-12-01 09:57:00,
2012-12-01 04:59:00,39.0,39.0,30.46,SE,135,3.0,4.0,0,0.00,,,0.00,meteohub,2012-12-01 09:59:00,
2012-12-01 05:00:00,39.0,39.0,30.45,SE,135,3.0,4.0,0,0.00,,,0.00,meteohub,2012-12-01 10:00:00,
2012-12-01 05:01:00,39.0,39.0,30.46,SE,135,3.0,4.0,0,0.00,,,0.00,meteohub,2012-12-01 10:01:00,
2012-12-01 05:03:00,39.0,39.0,30.46,SE,135,3.0,4.0,0,0.00,,,0.00,meteohub,2012-12-01 10:03:00,
2012-12-01 05:05:00,39.0,39.0,30.46,SE,135,3.0,4.0,0,0.00,,,0.00,meteohub,2012-12-01 10:05:00,
2012-12-01 05:06:00,39.0,39.0,30.46,SE,135,3.0,4.0,0,0.00,,,0.00,meteohub,2012-12-01 10:06:00,
2012-12-01 05:08:00,38.8,38.8,30.46,SE,135,2.0,4.0,0,0.00,,,0.00,meteohub,2012-12-01 10:08:00,
2012-12-01 05:09:00,38.8,38.8,30.46,SE,135,2.0,4.0,0,0.00,,,0.00,meteohub,2012-12-01 10:09:00,
2012-12-01 05:10:00,38.8,38.8,30.47,SE,135,3.0,3.0,0,0.00,,,0.00,meteohub,2012-12-01 10:10:00,
2012-12-01 05:11:00,38.8,38.8,30.47,SE,135,3.0,3.0,0,0.00,,,0.00,meteohub,2012-12-01 10:11:00,
2012-12-01 05:13:00,38.8,38.8,30.47,SE,135,3.0,3.0,0,0.00,,,0.00,meteohub,2012-12-01 10:13:00,
2012-12-01 05:14:00,38.8,38.8,30.46,SE,135,4.0,4.0,0,0.00,,,0.00,meteohub,2012-12-01 10:14:00,
2012-12-01 05:16:00,39.0,39.0,30.47,SE,135,4.0,4.0,0,0.00,,,0.00,meteohub,2012-12-01 10:16:00,
2012-12-01 05:18:00,39.0,39.0,30.47,SE,135,3.0,4.0,0,0.00,,,0.00,meteohub,2012-12-01 10:18:00,
2012-12-01 05:19:00,39.0,39.0,30.47,SE,135,2.0,4.0,0,0.00,,,0.00,meteohub,2012-12-01 10:19:00,
2012-12-01 05:20:00,39.0,39.0,30.47,SE,135,3.0,4.0,0,0.00,,,0.00,meteohub,2012-12-01 10:20:00,
2012-12-01 05:21:00,39.0,39.0,30.47,SE,135,3.0,4.0,0,0.00,,,0.00,meteohub,2012-12-01 10:21:00,
2012-12-01 05:23:00,39.0,39.0,30.47,SE,135,3.0,4.0,0,0.00,,,0.00,meteohub,2012-12-01 10:23:00,
2012-12-01 05:24:00,39.2,39.2,30.47,SE,135,3.0,4.0,0,0.00,,,0.00,meteohub,2012-12-01 10:24:00,
2012-12-01 05:25:00,39.2,39.2,30.47,SE,135,3.0,4.0,0,0.00,,,0.00,meteohub,2012-12-01 10:25:00,
2012-12-01 05:27:00,39.2,39.2,30.47,SE,135,2.0,4.0,0,0.00,,,0.00,meteohub,2012-12-01 10:27:00,
2012-12-01 05:28:00,39.2,39.2,30.47,SE,135,2.0,4.0,0,0.00,,,0.00,meteohub,2012-12-01 10:28:00,
2012-12-01 05:29:00,39.0,39.0,30.47,SE,135,2.0,4.0,0,0.00,,,0.00,meteohub,2012-12-01 10:29:00,
2012-12-01 05:32:00,39.0,39.0,30.47,SE,135,3.0,4.0,0,0.00,,,0.00,meteohub,2012-12-01 10:32:00,
2012-12-01 05:34:00,39.2,39.2,30.47,SE,135,4.0,4.0,0,0.00,,,0.00,meteohub,2012-12-01 10:34:00,
2012-12-01 05:35:00,39.2,39.2,30.47,SE,135,3.0,4.0,0,0.00,,,0.00,meteohub,2012-12-01 10:35:00,
2012-12-01 05:37:00,39.4,39.4,30.47,SE,135,3.0,4.0,0,0.00,,,0.00,meteohub,2012-12-01 10:37:00,
2012-12-01 05:39:00,39.4,39.4,30.48,SE,135,2.0,4.0,0,0.00,,,0.00,meteohub,2012-12-01 10:39:00,
2012-12-01 05:40:00,39.4,39.4,30.48,SE,135,2.0,4.0,0,0.00,,,0.00,meteohub,2012-12-01 10:40:00,
2012-12-01 05:42:00,39.4,39.4,30.48,SE,135,3.0,4.0,0,0.00,,,0.00,meteohub,2012-12-01 10:42:00,
2012-12-01 05:43:00,39.4,39.4,30.48,SE,135,3.0,4.0,0,0.00,,,0.00,meteohub,2012-12-01 10:43:00,
2012-12-01 05:44:00,39.4,39.4,30.48,SE,135,2.0,4.0,0,0.00,,,0.00,meteohub,2012-12-01 10:44:00,
2012-12-01 05:45:00,39.4,39.4,30.48,SE,135,2.0,4.0,0,0.00,,,0.00,meteohub,2012-12-01 10:45:00,
2012-12-01 05:48:00,39.2,39.2,30.48,SE,135,2.0,4.0,0,0.00,,,0.00,meteohub,2012-12-01 10:48:00,
2012-12-01 05:49:00,39.2,39.2,30.48,SE,135,2.0,4.0,0,0.00,,,0.00,meteohub,2012-12-01 10:49:00,
2012-12-01 05:51:00,39.0,39.0,30.48,SE,135,2.0,4.0,0,0.00,,,0.00,meteohub,2012-12-01 10:51:00,
2012-12-01 05:54:00,38.8,38.8,30.48,SE,135,2.0,4.0,0,0.00,,,0.00,meteohub,2012-12-01 10:54:00,
2012-12-01 05:56:00,38.7,38.7,30.48,SE,135,3.0,4.0,0,0.00,,,0.00,meteohub,2012-12-01 10:56:00,
2012-12-01 05:59:00,38.5,38.5,30.48,SE,135,2.0,4.0,0,0.00,,,0.00,meteohub,2012-12-01 10:59:00,
2012-12-01 06:00:00,38.5,38.5,30.48,SE,135,3.0,3.0,0,0.00,,,0.00,meteohub,2012-12-01 11:00:00,
2012-12-01 06:02:00,38.5,38.5,30.48,SE,135,3.0,3.0,0,0.00,,,0.00,meteohub,2012-12-01 11:02:00,
2012-12-01 06:03:00,38.5,38.5,30.48,SE,135,3.0,3.0,0,0.00,,,0.00,meteohub,2012-12-01 11:03:00,
2012-12-01 06:04:00,38.5,38.5,30.49,SE,135,3.0,3.0,0,0.00,,,0.00,meteohub,2012-12-01 11:04:00,
2012-12-01 06:06:00,38.5,38.5,30.48,SE,135,3.0,3.0,0,0.00,,,0.00,meteohub,2012-12-01 11:06:00,
2012-12-01 06:07:00,38.7,38.7,30.48,SE,135,3.0,3.0,0,0.00,,,0.00,meteohub,2012-12-01 11:07:00,
2012-12-01 06:08:00,38.8,38.8,30.49,SE,135,4.0,4.0,0,0.00,,,0.00,meteohub,2012-12-01 11:08:00,
2012-12-01 06:11:00,39.0,39.0,30.49,SE,135,3.0,3.0,0,0.00,,,0.00,meteohub,2012-12-01 11:11:00,
2012-12-01 06:12:00,39.0,39.0,30.49,SE,135,3.0,3.0,0,0.00,,,0.00,meteohub,2012-12-01 11:12:00,
2012-12-01 06:13:00,39.2,39.2,30.49,South,180,3.0,3.0,0,0.00,,,0.00,meteohub,2012-12-01 11:13:00,
2012-12-01 06:14:00,39.2,39.2,30.49,South,180,4.0,4.0,0,0.00,,,0.00,meteohub,2012-12-01 11:14:00,
2012-12-01 06:16:00,39.2,39.2,30.49,South,180,4.0,4.0,0,0.00,,,0.00,meteohub,2012-12-01 11:16:00,
2012-12-01 06:17:00,39.4,39.4,30.49,SE,135,4.0,4.0,0,0.00,,,0.00,meteohub,2012-12-01 11:17:00,
2012-12-01 06:19:00,39.4,39.4,30.49,SE,135,3.0,4.0,0,0.00,,,0.00,meteohub,2012-12-01 11:19:00,
2012-12-01 06:22:00,39.4,39.4,30.48,SE,135,3.0,4.0,0,0.00,,,0.00,meteohub,2012-12-01 11:22:00,
2012-12-01 06:23:00,39.4,39.4,30.49,SE,135,4.0,4.0,0,0.00,,,0.00,meteohub,2012-12-01 11:23:00,
2012-12-01 06:24:00,39.4,39.4,30.48,SE,135,4.0,4.0,0,0.00,,,0.00,meteohub,2012-12-01 11:24:00,
2012-12-01 06:27:00,39.4,39.4,30.48,South,180,4.0,4.0,0,0.00,,,0.00,meteohub,2012-12-01 11:27:00,
2012-12-01 06:28:00,39.4,39.4,30.48,South,180,4.0,4.0,0,0.00,,,0.00,meteohub,2012-12-01 11:28:00,
2012-12-01 06:30:00,39.4,39.4,30.48,SE,135,3.0,4.0,0,0.00,,,0.00,meteohub,2012-12-01 11:30:00,
2012-12-01 06:32:00,39.4,39.4,30.48,SE,135,3.0,4.0,0,0.00,,,0.00,meteohub,2012-12-01 11:32:00,
2012-12-01 06:33:00,39.4,39.4,30.48,SE,135,3.0,4.0,0,0.00,,,0.00,meteohub,2012-12-01 11:33:00,
2012-12-01 06:37:00,39.6,39.6,30.48,East,90,3.0,4.0,0,0.00,,,0.00,meteohub,2012-12-01 11:37:00,
2012-12-01 06:38:00,39.6,39.6,30.48,SSE,158,3.0,4.0,0,0.00,,,0.00,meteohub,2012-12-01 11:38:00,
2012-12-01 06:42:00,39.6,39.6,30.49,SE,135,3.0,4.0,0,0.00,,,0.00,meteohub,2012-12-01 11:42:00,
2012-12-01 06:44:00,39.4,39.4,30.49,South,180,4.0,4.0,0,0.00,,,0.00,meteohub,2012-12-01 11:44:00,
2012-12-01 06:46:00,39.4,39.4,30.50,SE,135,3.0,4.0,0,0.00,,,0.00,meteohub,2012-12-01 11:46:00,
2012-12-01 06:47:00,39.4,39.4,30.50,SE,135,3.0,4.0,0,0.00,,,0.00,meteohub,2012-12-01 11:47:00,
2012-12-01 06:49:00,39.6,39.6,30.50,South,180,4.0,4.0,0,0.00,,,0.00,meteohub,2012-12-01 11:49:00,
2012-12-01 06:51:00,39.6,39.6,30.50,SE,135,4.0,4.0,0,0.00,,,0.00,meteohub,2012-12-01 11:51:00,
2012-12-01 06:52:00,39.6,39.6,30.50,SE,135,4.0,4.0,0,0.00,,,0.00,meteohub,2012-12-01 11:52:00,
2012-12-01 06:53:00,39.6,39.6,30.50,SE,135,4.0,4.0,0,0.00,,,0.00,meteohub,2012-12-01 11:53:00,
2012-12-01 06:55:00,39.6,39.6,30.50,SE,135,4.0,4.0,0,0.00,,,0.00,meteohub,2012-12-01 11:55:00,
2012-12-01 06:57:00,39.7,39.7,30.50,South,180,4.0,4.0,0,0.00,,,0.00,meteohub,2012-12-01 11:57:00,
2012-12-01 06:58:00,39.7,39.7,30.50,WSW,248,3.0,4.0,0,0.00,,,0.00,meteohub,2012-12-01 11:58:00,
2012-12-01 06:59:00,39.7,39.7,30.51,SE,135,3.0,4.0,0,0.00,,,0.00,meteohub,2012-12-01 11:59:00,
2012-12-01 07:00:00,39.7,39.7,30.51,SE,135,3.0,4.0,0,0.00,,,0.00,meteohub,2012-12-01 12:00:00,
2012-12-01 07:03:00,39.7,39.7,30.51,SE,135,3.0,4.0,0,0.00,,,0.00,meteohub,2012-12-01 12:03:00,
2012-12-01 07:05:00,39.7,39.7,30.50,SE,135,3.0,4.0,0,0.00,,,0.00,meteohub,2012-12-01 12:05:00,
2012-12-01 07:06:00,39.7,39.7,30.50,SE,135,3.0,4.0,0,0.00,,,0.00,meteohub,2012-12-01 12:06:00,
2012-12-01 07:09:00,39.6,39.6,30.51,SE,135,3.0,4.0,0,0.00,,,0.00,meteohub,2012-12-01 12:09:00,
2012-12-01 07:11:00,39.7,39.7,30.51,SE,135,3.0,4.0,0,0.00,,,0.00,meteohub,2012-12-01 12:11:00,
2012-12-01 07:14:00,39.6,39.6,30.51,South,180,3.0,4.0,0,0.00,,,0.00,meteohub,2012-12-01 12:14:00,
2012-12-01 07:15:00,39.6,39.6,30.51,South,180,3.0,4.0,0,0.00,,,0.00,meteohub,2012-12-01 12:15:00,
2012-12-01 07:16:00,39.6,39.6,30.51,South,180,3.0,4.0,0,0.00,,,0.00,meteohub,2012-12-01 12:16:00,
2012-12-01 07:17:00,39.6,39.6,30.51,South,180,3.0,4.0,0,0.00,,,0.00,meteohub,2012-12-01 12:17:00,
2012-12-01 07:20:00,39.6,39.6,30.51,South,180,3.0,4.0,0,0.00,,,0.00,meteohub,2012-12-01 12:20:00,
2012-12-01 07:22:00,39.6,39.6,30.51,SE,135,3.0,4.0,0,0.00,,,0.00,meteohub,2012-12-01 12:22:00,
2012-12-01 07:23:00,39.6,39.6,30.51,SE,135,3.0,4.0,0,0.00,,,0.00,meteohub,2012-12-01 12:23:00,
2012-12-01 07:25:00,39.4,39.4,30.51,SE,135,3.0,4.0,0,0.00,,,0.00,meteohub,2012-12-01 12:25:00,
2012-12-01 07:26:00,39.4,39.4,30.51,SE,135,3.0,4.0,0,0.00,,,0.00,meteohub,2012-12-01 12:26:00,
2012-12-01 07:27:00,39.4,39.4,30.51,SE,135,3.0,4.0,0,0.00,,,0.00,meteohub,2012-12-01 12:27:00,
2012-12-01 07:28:00,39.2,39.2,30.51,SE,135,2.0,4.0,0,0.00,,,0.00,meteohub,2012-12-01 12:28:00,
2012-12-01 07:31:00,39.0,39.0,30.52,East,90,2.0,4.0,0,0.00,,,0.00,meteohub,2012-12-01 12:31:00,
2012-12-01 07:32:00,39.0,39.0,30.52,SE,135,3.0,4.0,0,0.00,,,0.00,meteohub,2012-12-01 12:32:00,
2012-12-01 07:33:00,39.0,39.0,30.51,SE,135,3.0,4.0,0,0.00,,,0.00,meteohub,2012-12-01 12:33:00,
2012-12-01 07:36:00,39.0,39.0,30.51,SE,135,3.0,3.0,0,0.00,,,0.00,meteohub,2012-12-01 12:36:00,
2012-12-01 07:37:00,39.0,39.0,30.51,South,180,4.0,4.0,0,0.00,,,0.00,meteohub,2012-12-01 12:37:00,
2012-12-01 07:38:00,39.0,39.0,30.51,SE,135,3.0,3.0,0,0.00,,,0.00,meteohub,2012-12-01 12:38:00,
2012-12-01 07:39:00,38.8,38.8,30.51,SE,135,2.0,3.0,0,0.00,,,0.00,meteohub,2012-12-01 12:39:00,
2012-12-01 07:41:00,38.8,38.8,30.51,East,90,2.0,4.0,0,0.00,,,0.00,meteohub,2012-12-01 12:41:00,
2012-12-01 07:42:00,38.8,38.8,30.51,SE,135,2.0,4.0,0,0.00,,,0.00,meteohub,2012-12-01 12:42:00,
2012-12-01 07:43:00,38.8,38.8,30.51,South,180,2.0,4.0,0,0.00,,,0.00,meteohub,2012-12-01 12:43:00,
2012-12-01 07:45:00,38.7,38.7,30.51,SE,135,3.0,4.0,0,0.00,,,0.00,meteohub,2012-12-01 12:45:00,
2012-12-01 07:47:00,38.8,38.8,30.51,SE,135,3.0,4.0,0,0.00,,,0.00,meteohub,2012-12-01 12:47:00,
2012-12-01 07:48:00,38.8,38.8,30.50,SE,135,2.0,4.0,0,0.00,,,0.00,meteohub,2012-12-01 12:48:00,
2012-12-01 07:49:00,38.8,38.8,30.50,SE,135,2.0,4.0,0,0.00,,,0.00,meteohub,2012-12-01 12:49:00,
2012-12-01 07:50:00,38.8,38.8,30.50,South,180,2.0,4.0,0,0.00,,,0.00,meteohub,2012-12-01 12:50:00,
2012-12-01 07:52:00,39.0,39.0,30.50,South,180,3.0,4.0,0,0.00,,,0.00,meteohub,2012-12-01 12:52:00,
2012-12-01 07:54:00,39.2,39.2,30.50,South,180,3.0,4.0,0,0.00,,,0.00,meteohub,2012-12-01 12:54:00,
2012-12-01 07:55:00,39.2,39.2,30.50,SE,135,3.0,3.0,0,0.00,,,0.00,meteohub,2012-12-01 12:55:00,
2012-12-01 07:58:00,39.4,39.4,30.50,South,180,3.0,3.0,0,0.00,,,0.00,meteohub,2012-12-01 12:58:00,
2012-12-01 07:59:00,39.4,39.4,30.50,SE,135,4.0,4.0,0,0.00,,,0.00,meteohub,2012-12-01 12:59:00,
2012-12-01 08:00:00,39.4,39.4,30.50,SE,135,3.0,3.0,0,0.00,,,0.00,meteohub,2012-12-01 13:00:00,
2012-12-01 08:03:00,39.6,39.6,30.51,SE,135,2.0,3.0,0,0.00,,,0.00,meteohub,2012-12-01 13:03:00,
2012-12-01 08:04:00,39.6,39.6,30.51,SE,135,2.0,3.0,0,0.00,,,0.00,meteohub,2012-12-01 13:04:00,
2012-12-01 08:05:00,39.7,39.7,30.51,SE,135,3.0,4.0,0,0.00,,,0.00,meteohub,2012-12-01 13:05:00,
2012-12-01 08:08:00,39.9,39.9,30.51,South,180,3.0,4.0,0,0.00,,,0.00,meteohub,2012-12-01 13:08:00,
2012-12-01 08:09:00,39.9,39.9,30.51,South,180,4.0,4.0,0,0.00,,,0.00,meteohub,2012-12-01 13:09:00,
2012-12-01 08:10:00,40.1,40.1,30.51,South,180,3.0,4.0,0,0.00,,,0.00,meteohub,2012-12-01 13:10:00,
2012-12-01 08:14:00,40.3,40.3,30.51,East,90,3.0,4.0,0,0.00,,,0.00,meteohub,2012-12-01 13:14:00,
2012-12-01 08:15:00,40.3,40.3,30.51,SE,135,3.0,4.0,0,0.00,,,0.00,meteohub,2012-12-01 13:15:00,
2012-12-01 08:16:00,40.3,40.3,30.51,SE,135,3.0,4.0,0,0.00,,,0.00,meteohub,2012-12-01 13:16:00,
2012-12-01 08:17:00,40.3,40.3,30.50,SE,135,3.0,4.0,0,0.00,,,0.00,meteohub,2012-12-01 13:17:00,
2012-12-01 08:19:00,40.3,40.3,30.51,SE,135,3.0,4.0,0,0.00,,,0.00,meteohub,2012-12-01 13:19:00,
2012-12-01 08:22:00,40.3,40.3,30.51,SE,135,3.0,4.0,0,0.00,,,0.00,meteohub,2012-12-01 13:22:00,
2012-12-01 08:24:00,40.3,40.3,30.51,SE,135,3.0,4.0,0,0.00,,,0.00,meteohub,2012-12-01 13:24:00,
2012-12-01 08:27:00,40.3,40.3,30.51,South,180,3.0,3.0,0,0.00,,,0.00,meteohub,2012-12-01 13:27:00,
2012-12-01 08:28:00,40.5,40.5,30.51,SE,135,3.0,3.0,0,0.00,,,0.00,meteohub,2012-12-01 13:28:00,
2012-12-01 08:29:00,40.5,40.5,30.51,South,180,4.0,4.0,0,0.00,,,0.00,meteohub,2012-12-01 13:29:00,
2012-12-01 08:32:00,40.5,40.5,30.51,South,180,4.0,4.0,0,0.00,,,0.00,meteohub,2012-12-01 13:32:00,
2012-12-01 08:33:00,40.5,40.5,30.51,SE,135,5.0,5.0,0,0.00,,,0.00,meteohub,2012-12-01 13:33:00,
2012-12-01 08:35:00,40.5,40.5,30.51,SE,135,3.0,5.0,0,0.00,,,0.00,meteohub,2012-12-01 13:35:00,
2012-12-01 08:38:00,40.5,40.5,30.51,SE,135,3.0,5.0,0,0.00,,,0.00,meteohub,2012-12-01 13:38:00,
2012-12-01 08:39:00,40.5,40.5,30.51,SE,135,3.0,5.0,0,0.00,,,0.00,meteohub,2012-12-01 13:39:00,
2012-12-01 08:41:00,40.5,40.5,30.51,East,90,3.0,5.0,0,0.00,,,0.00,meteohub,2012-12-01 13:41:00,
2012-12-01 08:43:00,40.5,40.5,30.51,East,90,7.0,7.0,0,0.00,,,0.00,meteohub,2012-12-01 13:43:00,
2012-12-01 08:44:00,40.5,40.5,30.51,SE,135,3.0,5.0,0,0.00,,,0.00,meteohub,2012-12-01 13:44:00,
2012-12-01 08:45:00,40.5,40.5,30.51,East,90,3.0,7.0,0,0.00,,,0.00,meteohub,2012-12-01 13:45:00,
2012-12-01 08:46:00,40.6,40.6,30.51,East,90,4.0,7.0,0,0.00,,,0.00,meteohub,2012-12-01 13:46:00,
2012-12-01 08:48:00,40.8,40.8,30.51,SE,135,3.0,7.0,0,0.00,,,0.00,meteohub,2012-12-01 13:48:00,
2012-12-01 08:49:00,41.0,41.0,30.51,East,90,4.0,7.0,0,0.00,,,0.00,meteohub,2012-12-01 13:49:00,
2012-12-01 08:50:00,41.2,41.2,30.51,East,90,4.0,7.0,0,0.00,,,0.00,meteohub,2012-12-01 13:50:00,
2012-12-01 08:52:00,41.4,41.4,30.51,SE,135,4.0,7.0,0,0.00,,,0.00,meteohub,2012-12-01 13:52:00,
2012-12-01 08:53:00,41.4,41.4,30.51,SE,135,3.0,7.0,0,0.00,,,0.00,meteohub,2012-12-01 13:53:00,
2012-12-01 08:54:00,41.5,41.5,30.51,SE,135,3.0,7.0,0,0.00,,,0.00,meteohub,2012-12-01 13:54:00,
2012-12-01 08:55:00,41.5,41.5,30.51,SE,135,3.0,7.0,0,0.00,,,0.00,meteohub,2012-12-01 13:55:00,
2012-12-01 08:57:00,41.7,41.7,30.51,SE,135,3.0,7.0,0,0.00,,,0.00,meteohub,2012-12-01 13:57:00,
2012-12-01 08:58:00,41.9,41.9,30.51,SE,135,3.0,7.0,0,0.00,,,0.00,meteohub,2012-12-01 13:58:00,
2012-12-01 08:59:00,42.1,42.1,30.51,East,90,3.0,7.0,0,0.00,,,0.00,meteohub,2012-12-01 13:59:00,
2012-12-01 09:02:00,42.1,42.1,30.51,East,90,3.0,5.0,0,0.00,,,0.00,meteohub,2012-12-01 14:02:00,
2012-12-01 09:03:00,42.1,42.1,30.51,East,90,3.0,5.0,0,0.00,,,0.00,meteohub,2012-12-01 14:03:00,
2012-12-01 09:04:00,42.1,42.1,30.51,East,90,3.0,5.0,0,0.00,,,0.00,meteohub,2012-12-01 14:04:00,
2012-12-01 09:05:00,42.1,42.1,30.51,East,90,3.0,5.0,0,0.00,,,0.00,meteohub,2012-12-01 14:05:00,
2012-12-01 09:07:00,43.0,43.0,30.51,SE,135,3.0,5.0,0,0.00,,,0.00,meteohub,2012-12-01 14:07:00,
2012-12-01 09:08:00,43.2,43.2,30.51,South,180,3.0,5.0,0,0.00,,,0.00,meteohub,2012-12-01 14:08:00,
2012-12-01 09:09:00,43.2,43.2,30.51,SE,135,4.0,5.0,0,0.00,,,0.00,meteohub,2012-12-01 14:09:00,
2012-12-01 09:11:00,43.3,43.3,30.51,SE,135,3.0,4.0,0,0.00,,,0.00,meteohub,2012-12-01 14:11:00,
2012-12-01 09:13:00,43.5,43.5,30.51,South,180,4.0,4.0,0,0.00,,,0.00,meteohub,2012-12-01 14:13:00,
2012-12-01 09:14:00,43.5,43.5,30.51,South,180,3.0,4.0,0,0.00,,,0.00,meteohub,2012-12-01 14:14:00,
2012-12-01 09:15:00,43.5,43.5,30.51,SE,135,4.0,4.0,0,0.00,,,0.00,meteohub,2012-12-01 14:15:00,
2012-12-01 09:17:00,43.7,43.7,30.51,SE,135,3.0,4.0,0,0.00,,,0.00,meteohub,2012-12-01 14:17:00,
2012-12-01 09:19:00,43.9,43.9,30.51,SE,135,4.0,4.0,0,0.00,,,0.00,meteohub,2012-12-01 14:19:00,
2012-12-01 09:20:00,44.1,44.1,30.51,SE,135,4.0,4.0,0,0.00,,,0.00,meteohub,2012-12-01 14:20:00,
2012-12-01 09:23:00,44.4,44.4,30.51,South,180,4.0,4.0,0,0.00,,,0.00,meteohub,2012-12-01 14:23:00,
2012-12-01 09:25:00,44.6,44.6,30.51,SE,135,3.0,4.0,0,0.00,,,0.00,meteohub,2012-12-01 14:25:00,
2012-12-01 09:26:00,44.6,44.6,30.51,SE,135,3.0,4.0,0,0.00,,,0.00,meteohub,2012-12-01 14:26:00,
2012-12-01 09:27:00,44.8,44.8,30.51,South,180,4.0,4.0,0,0.00,,,0.00,meteohub,2012-12-01 14:27:00,
2012-12-01 09:28:00,45.0,45.0,30.51,WSW,248,4.0,4.0,0,0.00,,,0.00,meteohub,2012-12-01 14:28:00,
2012-12-01 09:31:00,45.5,45.5,30.50,South,180,2.0,5.0,0,0.00,,,0.00,meteohub,2012-12-01 14:31:00,
2012-12-01 09:32:00,45.5,45.5,30.50,South,180,2.0,5.0,0,0.00,,,0.00,meteohub,2012-12-01 14:32:00,
2012-12-01 09:33:00,46.0,46.0,30.51,SE,135,6.0,6.0,0,0.00,,,0.00,meteohub,2012-12-01 14:33:00,
2012-12-01 09:36:00,46.4,46.4,30.50,SE,135,4.0,5.0,0,0.00,,,0.00,meteohub,2012-12-01 14:36:00,
2012-12-01 09:37:00,46.4,46.4,30.50,SE,135,4.0,5.0,0,0.00,,,0.00,meteohub,2012-12-01 14:37:00,
2012-12-01 09:38:00,46.6,46.6,30.51,WSW,248,4.0,5.0,0,0.00,,,0.00,meteohub,2012-12-01 14:38:00,
2012-12-01 09:42:00,47.3,47.3,30.50,South,180,4.0,7.0,0,0.00,,,0.00,meteohub,2012-12-01 14:42:00,
2012-12-01 09:43:00,47.5,47.5,30.51,SE,135,3.0,7.0,0,0.00,,,0.00,meteohub,2012-12-01 14:43:00,
2012-12-01 09:44:00,47.5,47.5,30.51,East,90,3.0,7.0,0,0.00,,,0.00,meteohub,2012-12-01 14:44:00,
2012-12-01 09:47:00,48.2,48.2,30.51,East,90,3.0,7.0,0,0.00,,,0.00,meteohub,2012-12-01 14:47:00,
2012-12-01 09:48:00,48.2,48.2,30.51,East,90,3.0,7.0,0,0.00,,,0.00,meteohub,2012-12-01 14:48:00,
2012-12-01 09:49:00,48.4,48.4,30.51,SE,135,4.0,7.0,0,0.00,,,0.00,meteohub,2012-12-01 14:49:00,
2012-12-01 09:50:00,48.4,48.4,30.51,East,90,3.0,7.0,0,0.00,,,0.00,meteohub,2012-12-01 14:50:00,
2012-12-01 09:52:00,48.6,48.6,30.51,South,180,4.0,7.0,0,0.00,,,0.00,meteohub,2012-12-01 14:52:00,
2012-12-01 09:54:00,48.7,48.7,30.51,SE,135,3.0,7.0,0,0.00,,,0.00,meteohub,2012-12-01 14:54:00,
2012-12-01 09:55:00,48.9,48.9,30.51,East,90,3.0,7.0,0,0.00,,,0.00,meteohub,2012-12-01 14:55:00,
2012-12-01 09:57:00,48.9,48.9,30.50,SE,135,4.0,6.0,0,0.00,,,0.00,meteohub,2012-12-01 14:57:00,
2012-12-01 09:59:00,48.9,48.9,30.51,SE,135,4.0,6.0,0,0.00,,,0.00,meteohub,2012-12-01 14:59:00,
2012-12-01 10:00:00,48.9,48.9,30.51,SE,135,4.0,6.0,0,0.00,,,0.00,meteohub,2012-12-01 15:00:00,
2012-12-01 10:02:00,48.9,48.9,30.51,SE,135,4.0,4.0,0,0.00,,,0.00,meteohub,2012-12-01 15:02:00,
2012-12-01 10:04:00,48.9,48.9,30.51,SE,135,4.0,4.0,0,0.00,,,0.00,meteohub,2012-12-01 15:04:00,
2012-12-01 10:05:00,48.9,48.9,30.51,SE,135,4.0,4.0,0,0.00,,,0.00,meteohub,2012-12-01 15:05:00,
2012-12-01 10:07:00,48.9,48.9,30.51,SE,135,4.0,4.0,0,0.00,,,0.00,meteohub,2012-12-01 15:07:00,
2012-12-01 10:09:00,49.1,49.1,30.51,SSE,158,2.0,4.0,0,0.00,,,0.00,meteohub,2012-12-01 15:09:00,
2012-12-01 10:10:00,49.3,49.3,30.51,SE,135,4.0,4.0,0,0.00,,,0.00,meteohub,2012-12-01 15:10:00,
2012-12-01 10:12:00,49.3,49.3,30.51,SE,135,4.0,4.0,0,0.00,,,0.00,meteohub,2012-12-01 15:12:00,
2012-12-01 10:14:00,49.5,49.5,30.51,WSW,248,6.0,6.0,0,0.00,,,0.00,meteohub,2012-12-01 15:14:00,
2012-12-01 10:15:00,49.6,49.6,30.51,East,90,4.0,4.0,0,0.00,,,0.00,meteohub,2012-12-01 15:15:00,
2012-12-01 10:17:00,49.6,49.6,30.51,South,180,7.0,7.0,0,0.00,,,0.00,meteohub,2012-12-01 15:17:00,
2012-12-01 10:18:00,49.6,49.6,30.51,SE,135,4.0,4.0,0,0.00,,,0.00,meteohub,2012-12-01 15:18:00,
2012-12-01 10:20:00,49.6,49.6,30.51,WSW,248,7.0,7.0,0,0.00,,,0.00,meteohub,2012-12-01 15:20:00,
2012-12-01 10:22:00,49.5,49.5,30.51,South,180,4.0,7.0,0,0.00,,,0.00,meteohub,2012-12-01 15:22:00,
2012-12-01 10:23:00,49.5,49.5,30.51,SE,135,7.0,7.0,0,0.00,,,0.00,meteohub,2012-12-01 15:23:00,
2012-12-01 10:24:00,49.3,49.3,30.51,SE,135,4.0,7.0,0,0.00,,,0.00,meteohub,2012-12-01 15:24:00,
2012-12-01 10:25:00,49.5,49.5,30.51,SE,135,3.0,7.0,0,0.00,,,0.00,meteohub,2012-12-01 15:25:00,
2012-12-01 10:28:00,50.0,50.0,30.51,East,90,4.0,7.0,0,0.00,,,0.00,meteohub,2012-12-01 15:28:00,
2012-12-01 10:29:00,50.0,50.0,30.51,East,90,3.0,7.0,0,0.00,,,0.00,meteohub,2012-12-01 15:29:00,
2012-12-01 10:32:00,50.2,50.2,30.52,SE,135,5.0,7.0,0,0.00,,,0.00,meteohub,2012-12-01 15:32:00,
2012-12-01 10:33:00,50.4,50.4,30.51,South,180,2.0,7.0,0,0.00,,,0.00,meteohub,2012-12-01 15:33:00,
2012-12-01 10:34:00,50.5,50.5,30.51,South,180,2.0,7.0,0,0.00,,,0.00,meteohub,2012-12-01 15:34:00,
2012-12-01 10:35:00,50.7,50.7,30.51,SE,135,4.0,7.0,0,0.00,,,0.00,meteohub,2012-12-01 15:35:00,
2012-12-01 10:37:00,51.1,51.1,30.51,SE,135,4.0,7.0,0,0.00,,,0.00,meteohub,2012-12-01 15:37:00,
2012-12-01 10:39:00,51.3,51.3,30.51,East,90,4.0,7.0,0,0.00,,,0.00,meteohub,2012-12-01 15:39:00,
2012-12-01 10:40:00,51.3,51.3,30.51,SE,135,2.0,6.0,0,0.00,,,0.00,meteohub,2012-12-01 15:40:00,
2012-12-01 10:42:00,51.4,51.4,30.51,South,180,3.0,6.0,0,0.00,,,0.00,meteohub,2012-12-01 15:42:00,
2012-12-01 10:44:00,51.6,51.6,30.51,SE,135,5.0,6.0,0,0.00,,,0.00,meteohub,2012-12-01 15:44:00,
2012-12-01 10:45:00,51.6,51.6,30.51,SE,135,4.0,6.0,0,0.00,,,0.00,meteohub,2012-12-01 15:45:00,
2012-12-01 10:47:00,51.6,51.6,30.51,South,180,5.0,6.0,0,0.00,,,0.00,meteohub,2012-12-01 15:47:00,
2012-12-01 10:49:00,51.3,51.3,30.51,SE,135,5.0,6.0,0,0.00,,,0.00,meteohub,2012-12-01 15:49:00,
2012-12-01 10:50:00,51.1,51.1,30.51,SE,135,3.0,6.0,0,0.00,,,0.00,meteohub,2012-12-01 15:50:00,
2012-12-01 10:52:00,51.1,51.1,30.51,SE,135,5.0,8.0,0,0.00,,,0.00,meteohub,2012-12-01 15:52:00,
2012-12-01 10:55:00,51.1,51.1,30.51,SE,135,3.0,8.0,0,0.00,,,0.00,meteohub,2012-12-01 15:55:00,
2012-12-01 10:57:00,51.3,51.3,30.51,South,180,4.0,8.0,0,0.00,,,0.00,meteohub,2012-12-01 15:57:00,
2012-12-01 10:58:00,51.3,51.3,30.51,SE,135,5.0,8.0,0,0.00,,,0.00,meteohub,2012-12-01 15:58:00,
2012-12-01 11:01:00,51.1,51.1,30.51,South,180,8.0,8.0,0,0.00,,,0.00,meteohub,2012-12-01 16:01:00,
2012-12-01 11:02:00,51.1,51.1,30.51,South,180,8.0,8.0,0,0.00,,,0.00,meteohub,2012-12-01 16:02:00,
2012-12-01 11:04:00,51.1,51.1,30.51,South,180,8.0,8.0,0,0.00,,,0.00,meteohub,2012-12-01 16:04:00,
2012-12-01 11:07:00,51.4,51.4,30.51,South,180,2.0,8.0,0,0.00,,,0.00,meteohub,2012-12-01 16:07:00,
2012-12-01 11:09:00,51.8,51.8,30.51,SE,135,2.0,8.0,0,0.00,,,0.00,meteohub,2012-12-01 16:09:00,
2012-12-01 11:10:00,52.0,52.0,30.51,SE,135,2.0,8.0,0,0.00,,,0.00,meteohub,2012-12-01 16:10:00,
2012-12-01 11:12:00,52.2,52.2,30.51,South,180,5.0,8.0,0,0.00,,,0.00,meteohub,2012-12-01 16:12:00,
2012-12-01 11:14:00,52.2,52.2,30.51,South,180,5.0,8.0,0,0.00,,,0.00,meteohub,2012-12-01 16:14:00,
2012-12-01 11:17:00,51.8,51.8,30.51,South,180,8.0,8.0,0,0.00,,,0.00,meteohub,2012-12-01 16:17:00,
2012-12-01 11:19:00,51.8,51.8,30.51,South,180,8.0,8.0,0,0.00,,,0.00,meteohub,2012-12-01 16:19:00,
2012-12-01 11:20:00,51.3,51.3,30.51,South,180,5.0,8.0,0,0.00,,,0.00,meteohub,2012-12-01 16:20:00,
2012-12-01 11:22:00,51.1,51.1,30.51,East,90,3.0,8.0,0,0.00,,,0.00,meteohub,2012-12-01 16:22:00,
2012-12-01 11:25:00,51.3,51.3,30.51,South,180,4.0,8.0,0,0.00,,,0.00,meteohub,2012-12-01 16:25:00,
2012-12-01 11:29:00,51.1,51.1,30.51,SE,135,4.0,8.0,0,0.00,,,0.00,meteohub,2012-12-01 16:29:00,
2012-12-01 11:30:00,51.1,51.1,30.51,South,180,5.0,8.0,0,0.00,,,0.00,meteohub,2012-12-01 16:30:00,
2012-12-01 11:35:00,51.4,51.4,30.50,South,180,5.0,7.0,0,0.00,,,0.00,meteohub,2012-12-01 16:35:00,
2012-12-01 11:36:00,51.4,51.4,30.50,South,180,5.0,7.0,0,0.00,,,0.00,meteohub,2012-12-01 16:36:00,
2012-12-01 11:40:00,52.5,52.5,30.50,South,180,4.0,7.0,0,0.00,,,0.00,meteohub,2012-12-01 16:40:00,
2012-12-01 11:41:00,52.7,52.7,30.50,SE,135,2.0,7.0,0,0.00,,,0.00,meteohub,2012-12-01 16:41:00,
2012-12-01 11:42:00,52.9,52.9,30.50,SE,135,4.0,7.0,0,0.00,,,0.00,meteohub,2012-12-01 16:42:00,
2012-12-01 11:43:00,52.9,52.9,30.49,South,180,7.0,7.0,0,0.00,,,0.00,meteohub,2012-12-01 16:43:00,
2012-12-01 11:46:00,53.2,53.2,30.50,SE,135,2.0,7.0,0,0.00,,,0.00,meteohub,2012-12-01 16:46:00,
2012-12-01 11:47:00,53.2,53.2,30.49,SE,135,2.0,7.0,0,0.00,,,0.00,meteohub,2012-12-01 16:47:00,
2012-12-01 11:48:00,53.4,53.4,30.49,West,270,6.0,7.0,0,0.00,,,0.00,meteohub,2012-12-01 16:48:00,
2012-12-01 11:51:00,52.7,52.7,30.49,SE,135,5.0,7.0,0,0.00,,,0.00,meteohub,2012-12-01 16:51:00,
2012-12-01 11:52:00,52.5,52.5,30.49,SE,135,4.0,7.0,0,0.00,,,0.00,meteohub,2012-12-01 16:52:00,
2012-12-01 11:54:00,52.5,52.5,30.49,SE,135,4.0,7.0,0,0.00,,,0.00,meteohub,2012-12-01 16:54:00,
2012-12-01 11:56:00,52.5,52.5,30.48,West,270,6.0,7.0,0,0.00,,,0.00,meteohub,2012-12-01 16:56:00,
2012-12-01 11:59:00,52.3,52.3,30.48,West,270,4.0,7.0,0,0.00,,,0.00,meteohub,2012-12-01 16:59:00,
2012-12-01 12:01:00,52.3,52.3,30.48,SE,135,4.0,7.0,0,0.00,,,0.00,meteohub,2012-12-01 17:01:00,
2012-12-01 12:02:00,52.3,52.3,30.48,SE,135,4.0,7.0,0,0.00,,,0.00,meteohub,2012-12-01 17:02:00,
2012-12-01 12:04:00,52.3,52.3,30.48,SE,135,4.0,7.0,0,0.00,,,0.00,meteohub,2012-12-01 17:04:00,
2012-12-01 12:05:00,53.1,53.1,30.48,SE,135,3.0,7.0,0,0.00,,,0.00,meteohub,2012-12-01 17:05:00,
2012-12-01 12:07:00,53.1,53.1,30.47,South,180,4.0,7.0,0,0.00,,,0.00,meteohub,2012-12-01 17:07:00,
2012-12-01 12:10:00,53.4,53.4,30.47,South,180,3.0,6.0,0,0.00,,,0.00,meteohub,2012-12-01 17:10:00,
2012-12-01 12:12:00,53.6,53.6,30.47,WSW,248,3.0,6.0,0,0.00,,,0.00,meteohub,2012-12-01 17:12:00,
2012-12-01 12:15:00,54.1,54.1,30.47,East,90,4.0,6.0,0,0.00,,,0.00,meteohub,2012-12-01 17:15:00,
2012-12-01 12:16:00,54.1,54.1,30.47,East,90,4.0,6.0,0,0.00,,,0.00,meteohub,2012-12-01 17:16:00,
2012-12-01 12:17:00,54.1,54.1,30.47,East,90,4.0,6.0,0,0.00,,,0.00,meteohub,2012-12-01 17:17:00,
2012-12-01 12:19:00,54.3,54.3,30.47,West,270,2.0,6.0,0,0.00,,,0.00,meteohub,2012-12-01 17:19:00,
2012-12-01 12:21:00,54.7,54.7,30.47,South,180,6.0,6.0,0,0.00,,,0.00,meteohub,2012-12-01 17:21:00,
2012-12-01 12:22:00,54.7,54.7,30.47,SE,135,7.0,7.0,0,0.00,,,0.00,meteohub,2012-12-01 17:22:00,
2012-12-01 12:24:00,54.5,54.5,30.47,SE,135,4.0,6.0,0,0.00,,,0.00,meteohub,2012-12-01 17:24:00,
2012-12-01 12:26:00,54.7,54.7,30.47,South,180,4.0,7.0,0,0.00,,,0.00,meteohub,2012-12-01 17:26:00,
2012-12-01 12:28:00,55.0,55.0,30.47,East,90,3.0,7.0,0,0.00,,,0.00,meteohub,2012-12-01 17:28:00,
2012-12-01 12:29:00,55.6,55.6,30.47,SE,135,4.0,7.0,0,0.00,,,0.00,meteohub,2012-12-01 17:29:00,
2012-12-01 12:31:00,55.6,55.6,30.47,WSW,248,4.0,7.0,0,0.00,,,0.00,meteohub,2012-12-01 17:31:00,
2012-12-01 12:33:00,55.6,55.6,30.47,SE,135,6.0,7.0,0,0.00,,,0.00,meteohub,2012-12-01 17:33:00,
2012-12-01 12:34:00,55.2,55.2,30.47,South,180,4.0,7.0,0,0.00,,,0.00,meteohub,2012-12-01 17:34:00,
2012-12-01 12:36:00,55.0,55.0,30.47,West,270,4.0,7.0,0,0.00,,,0.00,meteohub,2012-12-01 17:36:00,
2012-12-01 12:39:00,54.3,54.3,30.47,South,180,8.0,8.0,0,0.00,,,0.00,meteohub,2012-12-01 17:39:00,
2012-12-01 12:40:00,55.0,55.0,30.47,South,180,7.0,7.0,0,0.00,,,0.00,meteohub,2012-12-01 17:40:00,
2012-12-01 12:43:00,54.5,54.5,30.47,East,90,2.0,6.0,0,0.00,,,0.00,meteohub,2012-12-01 17:43:00,
2012-12-01 12:44:00,54.5,54.5,30.47,SE,135,5.0,6.0,0,0.00,,,0.00,meteohub,2012-12-01 17:44:00,
2012-12-01 12:45:00,54.7,54.7,30.47,South,180,3.0,8.0,0,0.00,,,0.00,meteohub,2012-12-01 17:45:00,
2012-12-01 12:46:00,55.0,55.0,30.47,SE,135,2.0,8.0,0,0.00,,,0.00,meteohub,2012-12-01 17:46:00,
2012-12-01 12:48:00,55.0,55.0,30.46,SE,135,2.0,8.0,0,0.00,,,0.00,meteohub,2012-12-01 17:48:00,
2012-12-01 12:49:00,55.0,55.0,30.47,SE,135,2.0,8.0,0,0.00,,,0.00,meteohub,2012-12-01 17:49:00,
2012-12-01 12:50:00,55.9,55.9,30.46,WSW,248,5.0,8.0,0,0.00,,,0.00,meteohub,2012-12-01 17:50:00,
2012-12-01 12:51:00,55.9,55.9,30.46,South,180,5.0,8.0,0,0.00,,,0.00,meteohub,2012-12-01 17:51:00,
2012-12-01 12:54:00,55.8,55.8,30.46,East,90,3.0,8.0,0,0.00,,,0.00,meteohub,2012-12-01 17:54:00,
2012-12-01 12:55:00,55.9,55.9,30.47,South,180,3.0,8.0,0,0.00,,,0.00,meteohub,2012-12-01 17:55:00,
2012-12-01 12:56:00,56.1,56.1,30.47,SE,135,3.0,10.0,0,0.00,,,0.00,meteohub,2012-12-01 17:56:00,
2012-12-01 12:57:00,56.3,56.3,30.47,SE,135,2.0,10.0,0,0.00,,,0.00,meteohub,2012-12-01 17:57:00,
2012-12-01 12:59:00,57.2,57.2,30.46,West,270,4.0,10.0,0,0.00,,,0.00,meteohub,2012-12-01 17:59:00,
2012-12-01 13:00:00,57.4,57.4,30.46,South,180,4.0,10.0,0,0.00,,,0.00,meteohub,2012-12-01 18:00:00,
2012-12-01 13:02:00,57.7,57.7,30.46,SE,135,4.0,10.0,0,0.00,,,0.00,meteohub,2012-12-01 18:02:00,
2012-12-01 13:03:00,57.7,57.7,30.47,SSE,158,5.0,10.0,0,0.00,,,0.00,meteohub,2012-12-01 18:03:00,
2012-12-01 13:05:00,57.7,57.7,30.46,East,90,4.0,10.0,0,0.00,,,0.00,meteohub,2012-12-01 18:05:00,
2012-12-01 13:07:00,57.7,57.7,30.47,WSW,248,7.0,10.0,0,0.00,,,0.00,meteohub,2012-12-01 18:07:00,
2012-12-01 13:08:00,57.6,57.6,30.47,SE,135,7.0,10.0,0,0.00,,,0.00,meteohub,2012-12-01 18:08:00,
2012-12-01 13:10:00,57.2,57.2,30.46,West,270,8.0,8.0,0,0.00,,,0.00,meteohub,2012-12-01 18:10:00,
2012-12-01 13:12:00,56.8,56.8,30.46,South,180,4.0,5.0,0,0.00,,,0.00,meteohub,2012-12-01 18:12:00,
2012-12-01 13:15:00,56.5,56.5,30.46,East,90,4.0,5.0,0,0.00,,,0.00,meteohub,2012-12-01 18:15:00,
2012-12-01 13:17:00,56.5,56.5,30.46,SE,135,3.0,8.0,0,0.00,,,0.00,meteohub,2012-12-01 18:17:00,
2012-12-01 13:18:00,56.7,56.7,30.46,South,180,2.0,8.0,0,0.00,,,0.00,meteohub,2012-12-01 18:18:00,
2012-12-01 13:20:00,57.2,57.2,30.46,South,180,6.0,8.0,0,0.00,,,0.00,meteohub,2012-12-01 18:20:00,
2012-12-01 13:22:00,57.4,57.4,30.47,South,180,7.0,8.0,0,0.00,,,0.00,meteohub,2012-12-01 18:22:00,
2012-12-01 13:24:00,57.2,57.2,30.46,South,180,4.0,8.0,0,0.00,,,0.00,meteohub,2012-12-01 18:24:00,
2012-12-01 13:25:00,57.2,57.2,30.46,South,180,8.0,8.0,0,0.00,,,0.00,meteohub,2012-12-01 18:25:00,
2012-12-01 13:26:00,57.0,57.0,30.46,WSW,248,5.0,8.0,0,0.00,,,0.00,meteohub,2012-12-01 18:26:00,
2012-12-01 13:28:00,57.0,57.0,30.46,WSW,248,4.0,8.0,0,0.00,,,0.00,meteohub,2012-12-01 18:28:00,
2012-12-01 13:30:00,57.2,57.2,30.46,WSW,248,5.0,8.0,0,0.00,,,0.00,meteohub,2012-12-01 18:30:00,
2012-12-01 13:32:00,57.4,57.4,30.46,WSW,248,8.0,8.0,0,0.00,,,0.00,meteohub,2012-12-01 18:32:00,
2012-12-01 13:33:00,57.4,57.4,30.46,South,180,4.0,8.0,0,0.00,,,0.00,meteohub,2012-12-01 18:33:00,
2012-12-01 13:36:00,57.4,57.4,30.46,South,180,4.0,8.0,0,0.00,,,0.00,meteohub,2012-12-01 18:36:00,
2012-12-01 13:37:00,57.6,57.6,30.46,WSW,248,4.0,8.0,0,0.00,,,0.00,meteohub,2012-12-01 18:37:00,
2012-12-01 13:38:00,57.7,57.7,30.46,SE,135,4.0,8.0,0,0.00,,,0.00,meteohub,2012-12-01 18:38:00,
2012-12-01 13:42:00,58.3,58.3,30.46,WSW,248,7.0,8.0,0,0.00,,,0.00,meteohub,2012-12-01 18:42:00,
2012-12-01 13:44:00,58.1,58.1,30.46,South,180,2.0,8.0,0,0.00,,,0.00,meteohub,2012-12-01 18:44:00,
2012-12-01 13:48:00,57.7,57.7,30.46,South,180,7.0,8.0,0,0.00,,,0.00,meteohub,2012-12-01 18:48:00,
2012-12-01 13:49:00,57.7,57.7,30.46,South,180,7.0,8.0,0,0.00,,,0.00,meteohub,2012-12-01 18:49:00,
2012-12-01 13:53:00,58.1,58.1,30.45,NE,45,6.0,11.0,0,0.00,,,0.00,meteohub,2012-12-01 18:53:00,
2012-12-01 13:54:00,58.5,58.5,30.45,West,270,5.0,11.0,0,0.00,,,0.00,meteohub,2012-12-01 18:54:00,
2012-12-01 13:58:00,57.9,57.9,30.46,South,180,9.0,12.0,0,0.00,,,0.00,meteohub,2012-12-01 18:58:00,
2012-12-01 14:00:00,57.9,57.9,30.45,South,180,6.0,12.0,0,0.00,,,0.00,meteohub,2012-12-01 19:00:00,
2012-12-01 14:03:00,57.9,57.9,30.45,WSW,248,11.0,12.0,0,0.00,,,0.00,meteohub,2012-12-01 19:03:00,
2012-12-01 14:05:00,57.9,57.9,30.45,WSW,248,11.0,12.0,0,0.00,,,0.00,meteohub,2012-12-01 19:05:00,
2012-12-01 14:06:00,57.9,57.9,30.45,WSW,248,11.0,12.0,0,0.00,,,0.00,meteohub,2012-12-01 19:06:00,
2012-12-01 14:07:00,57.9,57.9,30.45,WSW,248,11.0,12.0,0,0.00,,,0.00,meteohub,2012-12-01 19:07:00,
2012-12-01 14:09:00,57.7,57.7,30.45,South,180,5.0,12.0,0,0.00,,,0.00,meteohub,2012-12-01 19:09:00,
2012-12-01 14:10:00,57.4,57.4,30.45,WSW,248,9.0,12.0,0,0.00,,,0.00,meteohub,2012-12-01 19:10:00,
2012-12-01 14:11:00,57.4,57.4,30.45,WSW,248,9.0,12.0,0,0.00,,,0.00,meteohub,2012-12-01 19:11:00,
2012-12-01 14:12:00,57.2,57.2,30.45,West,270,3.0,12.0,0,0.00,,,0.00,meteohub,2012-12-01 19:12:00,
2012-12-01 14:15:00,57.2,57.2,30.45,WSW,248,6.0,12.0,0,0.00,,,0.00,meteohub,2012-12-01 19:15:00,
2012-12-01 14:18:00,57.4,57.4,30.45,WSW,248,3.0,11.0,0,0.00,,,0.00,meteohub,2012-12-01 19:18:00,
2012-12-01 14:19:00,57.4,57.4,30.45,WSW,248,4.0,11.0,0,0.00,,,0.00,meteohub,2012-12-01 19:19:00,
2012-12-01 14:20:00,57.4,57.4,30.45,South,180,2.0,11.0,0,0.00,,,0.00,meteohub,2012-12-01 19:20:00,
2012-12-01 14:23:00,57.6,57.6,30.45,South,180,7.0,11.0,0,0.00,,,0.00,meteohub,2012-12-01 19:23:00,
2012-12-01 14:25:00,57.6,57.6,30.45,South,180,3.0,11.0,0,0.00,,,0.00,meteohub,2012-12-01 19:25:00,
2012-12-01 14:28:00,58.5,58.5,30.45,WSW,248,2.0,11.0,0,0.00,,,0.00,meteohub,2012-12-01 19:28:00,
2012-12-01 14:31:00,58.6,58.6,30.45,NW,315,5.0,8.0,0,0.00,,,0.00,meteohub,2012-12-01 19:31:00,
2012-12-01 14:33:00,57.9,57.9,30.45,WSW,248,4.0,8.0,0,0.00,,,0.00,meteohub,2012-12-01 19:33:00,
2012-12-01 14:34:00,57.7,57.7,30.45,West,270,6.0,8.0,0,0.00,,,0.00,meteohub,2012-12-01 19:34:00,
2012-12-01 14:37:00,56.8,56.8,30.46,South,180,4.0,8.0,0,0.00,,,0.00,meteohub,2012-12-01 19:37:00,
2012-12-01 14:39:00,56.7,56.7,30.46,WNW,293,7.0,8.0,0,0.00,,,0.00,meteohub,2012-12-01 19:39:00,
2012-12-01 14:40:00,56.5,56.5,30.46,West,270,7.0,7.0,0,0.00,,,0.00,meteohub,2012-12-01 19:40:00,
2012-12-01 14:43:00,55.9,55.9,30.46,WSW,248,5.0,6.0,0,0.00,,,0.00,meteohub,2012-12-01 19:43:00,
2012-12-01 14:44:00,55.8,55.8,30.46,WSW,248,4.0,6.0,0,0.00,,,0.00,meteohub,2012-12-01 19:44:00,
2012-12-01 14:45:00,55.8,55.8,30.46,WSW,248,5.0,9.0,0,0.00,,,0.00,meteohub,2012-12-01 19:45:00,
2012-12-01 14:48:00,55.6,55.6,30.46,WSW,248,8.0,9.0,0,0.00,,,0.00,meteohub,2012-12-01 19:48:00,
2012-12-01 14:49:00,55.6,55.6,30.46,WSW,248,8.0,9.0,0,0.00,,,0.00,meteohub,2012-12-01 19:49:00,
2012-12-01 14:50:00,55.6,55.6,30.46,WSW,248,8.0,9.0,0,0.00,,,0.00,meteohub,2012-12-01 19:50:00,
2012-12-01 14:51:00,55.6,55.6,30.46,WSW,248,8.0,9.0,0,0.00,,,0.00,meteohub,2012-12-01 19:51:00,
2012-12-01 14:54:00,55.0,55.0,30.46,WSW,248,4.0,9.0,0,0.00,,,0.00,meteohub,2012-12-01 19:54:00,
2012-12-01 14:55:00,55.0,55.0,30.47,West,270,5.0,9.0,0,0.00,,,0.00,meteohub,2012-12-01 19:55:00,
2012-12-01 14:57:00,55.0,55.0,30.47,West,270,4.0,9.0,0,0.00,,,0.00,meteohub,2012-12-01 19:57:00,
2012-12-01 15:00:00,54.9,54.9,30.46,WSW,248,4.0,9.0,0,0.00,,,0.00,meteohub,2012-12-01 20:00:00,
2012-12-01 15:02:00,54.9,54.9,30.47,WSW,248,2.0,8.0,0,0.00,,,0.00,meteohub,2012-12-01 20:02:00,
2012-12-01 15:03:00,54.9,54.9,30.46,South,180,2.0,8.0,0,0.00,,,0.00,meteohub,2012-12-01 20:03:00,
2012-12-01 15:05:00,54.9,54.9,30.46,South,180,2.0,8.0,0,0.00,,,0.00,meteohub,2012-12-01 20:05:00,
2012-12-01 15:06:00,54.9,54.9,30.47,WSW,248,4.0,8.0,0,0.00,,,0.00,meteohub,2012-12-01 20:06:00,
2012-12-01 15:07:00,55.0,55.0,30.46,West,270,7.0,8.0,0,0.00,,,0.00,meteohub,2012-12-01 20:07:00,
2012-12-01 15:08:00,55.0,55.0,30.46,WSW,248,5.0,8.0,0,0.00,,,0.00,meteohub,2012-12-01 20:08:00,
2012-12-01 15:10:00,55.0,55.0,30.46,NW,315,5.0,7.0,0,0.00,,,0.00,meteohub,2012-12-01 20:10:00,
2012-12-01 15:12:00,55.8,55.8,30.47,NW,315,3.0,7.0,0,0.00,,,0.00,meteohub,2012-12-01 20:12:00,
2012-12-01 15:14:00,56.5,56.5,30.46,WSW,248,3.0,7.0,0,0.00,,,0.00,meteohub,2012-12-01 20:14:00,
2012-12-01 15:15:00,56.7,56.7,30.46,West,270,6.0,7.0,0,0.00,,,0.00,meteohub,2012-12-01 20:15:00,
2012-12-01 15:18:00,57.2,57.2,30.46,East,90,4.0,7.0,0,0.00,,,0.00,meteohub,2012-12-01 20:18:00,
2012-12-01 15:19:00,57.2,57.2,30.46,East,90,4.0,7.0,0,0.00,,,0.00,meteohub,2012-12-01 20:19:00,
2012-12-01 15:21:00,57.0,57.0,30.46,WSW,248,4.0,7.0,0,0.00,,,0.00,meteohub,2012-12-01 20:21:00,
2012-12-01 15:24:00,57.0,57.0,30.46,WSW,248,4.0,7.0,0,0.00,,,0.00,meteohub,2012-12-01 20:24:00,
2012-12-01 15:26:00,57.0,57.0,30.46,WSW,248,4.0,6.0,0,0.00,,,0.00,meteohub,2012-12-01 20:26:00,
2012-12-01 15:27:00,57.0,57.0,30.47,WSW,248,4.0,6.0,0,0.00,,,0.00,meteohub,2012-12-01 20:27:00,
2012-12-01 15:29:00,56.3,56.3,30.46,West,270,3.0,6.0,0,0.00,,,0.00,meteohub,2012-12-01 20:29:00,
2012-12-01 15:31:00,56.1,56.1,30.47,NW,315,2.0,6.0,0,0.00,,,0.00,meteohub,2012-12-01 20:31:00,
2012-12-01 15:32:00,55.9,55.9,30.46,West,270,2.0,6.0,0,0.00,,,0.00,meteohub,2012-12-01 20:32:00,
2012-12-01 15:34:00,55.8,55.8,30.47,West,270,3.0,6.0,0,0.00,,,0.00,meteohub,2012-12-01 20:34:00,
2012-12-01 15:37:00,55.4,55.4,30.47,West,270,4.0,4.0,0,0.00,,,0.00,meteohub,2012-12-01 20:37:00,
2012-12-01 15:38:00,55.2,55.2,30.47,West,270,4.0,4.0,0,0.00,,,0.00,meteohub,2012-12-01 20:38:00,
2012-12-01 15:39:00,55.0,55.0,30.47,WSW,248,4.0,4.0,0,0.00,,,0.00,meteohub,2012-12-01 20:39:00,
2012-12-01 15:42:00,55.0,55.0,30.47,NW,315,2.0,4.0,0,0.00,,,0.00,meteohub,2012-12-01 20:42:00,
2012-12-01 15:43:00,55.2,55.2,30.47,NW,315,5.0,5.0,0,0.00,,,0.00,meteohub,2012-12-01 20:43:00,
2012-12-01 15:45:00,55.6,55.6,30.47,West,270,4.0,5.0,0,0.00,,,0.00,meteohub,2012-12-01 20:45:00,
2012-12-01 15:47:00,55.6,55.6,30.46,West,270,3.0,5.0,0,0.00,,,0.00,meteohub,2012-12-01 20:47:00,
2012-12-01 15:48:00,55.6,55.6,30.46,South,180,4.0,5.0,0,0.00,,,0.00,meteohub,2012-12-01 20:48:00,
2012-12-01 15:49:00,55.6,55.6,30.47,South,180,2.0,5.0,0,0.00,,,0.00,meteohub,2012-12-01 20:49:00,
2012-12-01 15:52:00,55.6,55.6,30.46,WSW,248,2.0,5.0,0,0.00,,,0.00,meteohub,2012-12-01 20:52:00,
2012-12-01 15:53:00,55.6,55.6,30.46,WSW,248,3.0,5.0,0,0.00,,,0.00,meteohub,2012-12-01 20:53:00,
2012-12-01 15:54:00,55.4,55.4,30.46,WSW,248,3.0,5.0,0,0.00,,,0.00,meteohub,2012-12-01 20:54:00,
2012-12-01 15:58:00,55.2,55.2,30.45,SE,135,2.0,5.0,0,0.00,,,0.00,meteohub,2012-12-01 20:58:00,
2012-12-01 15:59:00,55.0,55.0,30.46,WSW,248,2.0,5.0,0,0.00,,,0.00,meteohub,2012-12-01 20:59:00,
2012-12-01 16:01:00,55.0,55.0,30.45,WSW,248,2.0,5.0,0,0.00,,,0.00,meteohub,2012-12-01 21:01:00,
2012-12-01 16:03:00,55.0,55.0,30.46,WSW,248,2.0,5.0,0,0.00,,,0.00,meteohub,2012-12-01 21:03:00,
2012-12-01 16:05:00,55.0,55.0,30.46,WSW,248,2.0,5.0,0,0.00,,,0.00,meteohub,2012-12-01 21:05:00,
2012-12-01 16:06:00,55.0,55.0,30.46,WSW,248,2.0,4.0,0,0.00,,,0.00,meteohub,2012-12-01 21:06:00,
2012-12-01 16:09:00,54.5,54.5,30.46,NW,315,3.0,4.0,0,0.00,,,0.00,meteohub,2012-12-01 21:09:00,
2012-12-01 16:10:00,54.3,54.3,30.46,WSW,248,2.0,4.0,0,0.00,,,0.00,meteohub,2012-12-01 21:10:00,
2012-12-01 16:11:00,54.3,54.3,30.46,WSW,248,1.0,3.0,0,0.00,,,0.00,meteohub,2012-12-01 21:11:00,
2012-12-01 16:12:00,54.1,54.1,30.46,WSW,248,2.0,3.0,0,0.00,,,0.00,meteohub,2012-12-01 21:12:00,
2012-12-01 16:14:00,54.1,54.1,30.46,WSW,248,2.0,3.0,0,0.00,,,0.00,meteohub,2012-12-01 21:14:00,
2012-12-01 16:16:00,54.0,54.0,30.46,WSW,248,1.0,3.0,0,0.00,,,0.00,meteohub,2012-12-01 21:16:00,
2012-12-01 16:17:00,54.0,54.0,30.46,WSW,248,2.0,3.0,0,0.00,,,0.00,meteohub,2012-12-01 21:17:00,
2012-12-01 16:20:00,53.6,53.6,30.46,West,270,2.0,4.0,0,0.00,,,0.00,meteohub,2012-12-01 21:20:00,
2012-12-01 16:21:00,53.6,53.6,30.46,West,270,4.0,4.0,0,0.00,,,0.00,meteohub,2012-12-01 21:21:00,
2012-12-01 16:22:00,53.6,53.6,30.46,West,270,2.0,4.0,0,0.00,,,0.00,meteohub,2012-12-01 21:22:00,
2012-12-01 16:23:00,53.6,53.6,30.46,WSW,248,2.0,4.0,0,0.00,,,0.00,meteohub,2012-12-01 21:23:00,
2012-12-01 16:27:00,53.4,53.4,30.46,NW,315,0.0,4.0,0,0.00,,,0.00,meteohub,2012-12-01 21:27:00,
2012-12-01 16:28:00,53.2,53.2,30.46,NW,315,0.0,4.0,0,0.00,,,0.00,meteohub,2012-12-01 21:28:00,
2012-12-01 16:32:00,53.1,53.1,30.46,NW,315,0.0,4.0,0,0.00,,,0.00,meteohub,2012-12-01 21:32:00,
2012-12-01 16:33:00,53.1,53.1,30.46,NW,315,0.0,4.0,0,0.00,,,0.00,meteohub,2012-12-01 21:33:00,
2012-12-01 16:34:00,53.1,53.1,30.46,NW,315,0.0,4.0,0,0.00,,,0.00,meteohub,2012-12-01 21:34:00,
2012-12-01 16:38:00,52.9,52.9,30.46,South,180,2.0,4.0,0,0.00,,,0.00,meteohub,2012-12-01 21:38:00,
2012-12-01 16:39:00,52.9,52.9,30.46,South,180,1.0,4.0,0,0.00,,,0.00,meteohub,2012-12-01 21:39:00,
2012-12-01 16:43:00,52.7,52.7,30.46,SE,135,1.0,2.0,0,0.00,,,0.00,meteohub,2012-12-01 21:43:00,
2012-12-01 16:44:00,52.7,52.7,30.46,SE,135,1.0,2.0,0,0.00,,,0.00,meteohub,2012-12-01 21:44:00,
2012-12-01 16:45:00,52.7,52.7,30.46,SE,135,1.0,2.0,0,0.00,,,0.00,meteohub,2012-12-01 21:45:00,
2012-12-01 16:48:00,52.5,52.5,30.46,SE,135,0.0,2.0,0,0.00,,,0.00,meteohub,2012-12-01 21:48:00,
2012-12-01 16:49:00,52.5,52.5,30.46,SE,135,0.0,2.0,0,0.00,,,0.00,meteohub,2012-12-01 21:49:00,
2012-12-01 16:50:00,52.5,52.5,30.46,SE,135,0.0,2.0,0,0.00,,,0.00,meteohub,2012-12-01 21:50:00,
2012-12-01 16:53:00,52.3,52.3,30.46,SE,135,2.0,2.0,0,0.00,,,0.00,meteohub,2012-12-01 21:53:00,
2012-12-01 16:55:00,52.3,52.3,30.46,SE,135,2.0,2.0,0,0.00,,,0.00,meteohub,2012-12-01 21:55:00,
2012-12-01 16:56:00,52.3,52.3,30.46,South,180,2.0,2.0,0,0.00,,,0.00,meteohub,2012-12-01 21:56:00,
2012-12-01 16:59:00,52.3,52.3,30.46,South,180,2.0,2.0,0,0.00,,,0.00,meteohub,2012-12-01 21:59:00,
2012-12-01 17:00:00,52.3,52.3,30.46,South,180,2.0,2.0,0,0.00,,,0.00,meteohub,2012-12-01 22:00:00,
2012-12-01 17:01:00,52.3,52.3,30.47,South,180,2.0,2.0,0,0.00,,,0.00,meteohub,2012-12-01 22:01:00,
2012-12-01 17:06:00,52.3,52.3,30.46,South,180,2.0,2.0,0,0.00,,,0.00,meteohub,2012-12-01 22:06:00,
2012-12-01 17:12:00,51.8,51.8,30.47,SE,135,2.0,2.0,0,0.00,,,0.00,meteohub,2012-12-01 22:12:00,
2012-12-01 17:13:00,51.8,51.8,30.47,SE,135,2.0,2.0,0,0.00,,,0.00,meteohub,2012-12-01 22:13:00,
2012-12-01 17:17:00,51.4,51.4,30.47,South,180,2.0,2.0,0,0.00,,,0.00,meteohub,2012-12-01 22:17:00,
2012-12-01 17:18:00,51.4,51.4,30.47,SE,135,2.0,2.0,0,0.00,,,0.00,meteohub,2012-12-01 22:18:00,
2012-12-01 17:19:00,51.3,51.3,30.47,SE,135,2.0,2.0,0,0.00,,,0.00,meteohub,2012-12-01 22:19:00,
2012-12-01 17:23:00,51.3,51.3,30.47,SE,135,2.0,3.0,0,0.00,,,0.00,meteohub,2012-12-01 22:23:00,
2012-12-01 17:24:00,51.3,51.3,30.47,SE,135,2.0,3.0,0,0.00,,,0.00,meteohub,2012-12-01 22:24:00,
2012-12-01 17:25:00,51.3,51.3,30.47,East,90,2.0,3.0,0,0.00,,,0.00,meteohub,2012-12-01 22:25:00,
2012-12-01 17:28:00,51.3,51.3,30.47,SE,135,2.0,3.0,0,0.00,,,0.00,meteohub,2012-12-01 22:28:00,
2012-12-01 17:29:00,51.1,51.1,30.47,SE,135,2.0,3.0,0,0.00,,,0.00,meteohub,2012-12-01 22:29:00,
2012-12-01 17:30:00,51.1,51.1,30.47,NE,45,3.0,3.0,0,0.00,,,0.00,meteohub,2012-12-01 22:30:00,
2012-12-01 17:31:00,51.1,51.1,30.47,NE,45,3.0,3.0,0,0.00,,,0.00,meteohub,2012-12-01 22:31:00,
2012-12-01 17:33:00,51.1,51.1,30.47,SE,135,4.0,4.0,0,0.00,,,0.00,meteohub,2012-12-01 22:33:00,
2012-12-01 17:34:00,51.1,51.1,30.47,East,90,3.0,3.0,0,0.00,,,0.00,meteohub,2012-12-01 22:34:00,
2012-12-01 17:36:00,51.1,51.1,30.47,East,90,4.0,5.0,0,0.00,,,0.00,meteohub,2012-12-01 22:36:00,
2012-12-01 17:39:00,51.1,51.1,30.46,East,90,4.0,5.0,0,0.00,,,0.00,meteohub,2012-12-01 22:39:00,
2012-12-01 17:40:00,50.9,50.9,30.47,East,90,4.0,5.0,0,0.00,,,0.00,meteohub,2012-12-01 22:40:00,
2012-12-01 17:41:00,50.9,50.9,30.47,East,90,4.0,5.0,0,0.00,,,0.00,meteohub,2012-12-01 22:41:00,
2012-12-01 17:42:00,50.9,50.9,30.47,SE,135,4.0,5.0,0,0.00,,,0.00,meteohub,2012-12-01 22:42:00,
2012-12-01 17:44:00,50.9,50.9,30.47,East,90,5.0,5.0,0,0.00,,,0.00,meteohub,2012-12-01 22:44:00,
2012-12-01 17:45:00,50.9,50.9,30.47,SE,135,4.0,5.0,0,0.00,,,0.00,meteohub,2012-12-01 22:45:00,
2012-12-01 17:47:00,50.9,50.9,30.47,East,90,4.0,5.0,0,0.00,,,0.00,meteohub,2012-12-01 22:47:00,
2012-12-01 17:49:00,50.9,50.9,30.47,SE,135,4.0,5.0,0,0.00,,,0.00,meteohub,2012-12-01 22:49:00,
2012-12-01 17:51:00,50.7,50.7,30.47,SE,135,4.0,5.0,0,0.00,,,0.00,meteohub,2012-12-01 22:51:00,
2012-12-01 17:52:00,50.7,50.7,30.47,SE,135,3.0,5.0,0,0.00,,,0.00,meteohub,2012-12-01 22:52:00,
2012-12-01 17:53:00,50.7,50.7,30.47,SE,135,4.0,5.0,0,0.00,,,0.00,meteohub,2012-12-01 22:53:00,
2012-12-01 17:55:00,50.7,50.7,30.47,SE,135,4.0,5.0,0,0.00,,,0.00,meteohub,2012-12-01 22:55:00,
2012-12-01 17:57:00,50.5,50.5,30.46,SE,135,3.0,5.0,0,0.00,,,0.00,meteohub,2012-12-01 22:57:00,
2012-12-01 17:58:00,50.5,50.5,30.46,East,90,4.0,5.0,0,0.00,,,0.00,meteohub,2012-12-01 22:58:00,
2012-12-01 18:00:00,50.5,50.5,30.47,SE,135,3.0,4.0,0,0.00,,,0.00,meteohub,2012-12-01 23:00:00,
2012-12-01 18:02:00,50.5,50.5,30.47,SE,135,3.0,4.0,0,0.00,,,0.00,meteohub,2012-12-01 23:02:00,
2012-12-01 18:03:00,50.5,50.5,30.47,SE,135,3.0,4.0,0,0.00,,,0.00,meteohub,2012-12-01 23:03:00,
2012-12-01 18:04:00,50.5,50.5,30.47,SE,135,3.0,4.0,0,0.00,,,0.00,meteohub,2012-12-01 23:04:00,
2012-12-01 18:05:00,50.5,50.5,30.47,SE,135,3.0,4.0,0,0.00,,,0.00,meteohub,2012-12-01 23:05:00,
2012-12-01 18:07:00,50.5,50.5,30.47,SE,135,3.0,4.0,0,0.00,,,0.00,meteohub,2012-12-01 23:07:00,
2012-12-01 18:08:00,50.4,50.4,30.47,NW,315,4.0,4.0,0,0.00,,,0.00,meteohub,2012-12-01 23:08:00,
2012-12-01 18:09:00,50.4,50.4,30.47,SE,135,4.0,4.0,0,0.00,,,0.00,meteohub,2012-12-01 23:09:00,
2012-12-01 18:11:00,50.4,50.4,30.47,SE,135,4.0,4.0,0,0.00,,,0.00,meteohub,2012-12-01 23:11:00,
2012-12-01 18:12:00,50.4,50.4,30.47,SE,135,3.0,4.0,0,0.00,,,0.00,meteohub,2012-12-01 23:12:00,
2012-12-01 18:13:00,50.2,50.2,30.47,SE,135,4.0,4.0,0,0.00,,,0.00,meteohub,2012-12-01 23:13:00,
2012-12-01 18:14:00,50.2,50.2,30.47,SE,135,4.0,4.0,0,0.00,,,0.00,meteohub,2012-12-01 23:14:00,
2012-12-01 18:17:00,50.2,50.2,30.47,SE,135,4.0,4.0,0,0.00,,,0.00,meteohub,2012-12-01 23:17:00,
2012-12-01 18:18:00,50.2,50.2,30.47,SE,135,4.0,4.0,0,0.00,,,0.00,meteohub,2012-12-01 23:18:00,
2012-12-01 18:19:00,50.2,50.2,30.47,East,90,4.0,4.0,0,0.00,,,0.00,meteohub,2012-12-01 23:19:00,
2012-12-01 18:22:00,50.0,50.0,30.47,SE,135,4.0,5.0,0,0.00,,,0.00,meteohub,2012-12-01 23:22:00,
2012-12-01 18:23:00,50.0,50.0,30.47,East,90,4.0,5.0,0,0.00,,,0.00,meteohub,2012-12-01 23:23:00,
2012-12-01 18:25:00,50.0,50.0,30.47,SE,135,4.0,5.0,0,0.00,,,0.00,meteohub,2012-12-01 23:25:00,
2012-12-01 18:27:00,50.0,50.0,30.48,SE,135,4.0,5.0,0,0.00,,,0.00,meteohub,2012-12-01 23:27:00,
2012-12-01 18:28:00,50.0,50.0,30.48,SE,135,4.0,5.0,0,0.00,,,0.00,meteohub,2012-12-01 23:28:00,
2012-12-01 18:29:00,50.0,50.0,30.48,SE,135,4.0,5.0,0,0.00,,,0.00,meteohub,2012-12-01 23:29:00,
2012-12-01 18:31:00,49.8,49.8,30.48,SE,135,4.0,5.0,0,0.00,,,0.00,meteohub,2012-12-01 23:31:00,
2012-12-01 18:33:00,49.8,49.8,30.47,SE,135,4.0,5.0,0,0.00,,,0.00,meteohub,2012-12-01 23:33:00,
2012-12-01 18:34:00,49.8,49.8,30.47,East,90,4.0,5.0,0,0.00,,,0.00,meteohub,2012-12-01 23:34:00,
2012-12-01 18:35:00,49.8,49.8,30.47,East,90,4.0,5.0,0,0.00,,,0.00,meteohub,2012-12-01 23:35:00,
2012-12-01 18:38:00,49.8,49.8,30.47,East,90,4.0,5.0,0,0.00,,,0.00,meteohub,2012-12-01 23:38:00,
2012-12-01 18:39:00,49.6,49.6,30.47,East,90,6.0,6.0,0,0.00,,,0.00,meteohub,2012-12-01 23:39:00,
2012-12-01 18:40:00,49.6,49.6,30.47,East,90,4.0,5.0,0,0.00,,,0.00,meteohub,2012-12-01 23:40:00,
2012-12-01 18:43:00,49.6,49.6,30.47,SE,135,5.0,5.0,0,0.00,,,0.00,meteohub,2012-12-01 23:43:00,
2012-12-01 18:44:00,49.6,49.6,30.47,SE,135,5.0,5.0,0,0.00,,,0.00,meteohub,2012-12-01 23:44:00,
2012-12-01 18:46:00,49.5,49.5,30.47,SE,135,4.0,6.0,0,0.00,,,0.00,meteohub,2012-12-01 23:46:00,
2012-12-01 18:49:00,49.5,49.5,30.47,East,90,5.0,6.0,0,0.00,,,0.00,meteohub,2012-12-01 23:49:00,
2012-12-01 18:50:00,49.5,49.5,30.47,SE,135,4.0,6.0,0,0.00,,,0.00,meteohub,2012-12-01 23:50:00,
2012-12-01 18:51:00,49.5,49.5,30.47,SE,135,4.0,7.0,0,0.00,,,0.00,meteohub,2012-12-01 23:51:00,
2012-12-01 18:54:00,49.5,49.5,30.47,SE,135,4.0,7.0,0,0.00,,,0.00,meteohub,2012-12-01 23:54:00,
2012-12-01 18:55:00,49.5,49.5,30.47,SE,135,4.0,7.0,0,0.00,,,0.00,meteohub,2012-12-01 23:55:00,
2012-12-01 18:58:00,49.5,49.5,30.48,SE,135,4.0,7.0,0,0.00,,,0.00,meteohub,2012-12-01 23:58:00,
2012-12-01 18:59:00,49.5,49.5,30.48,SE,135,4.0,7.0,0,0.00,,,0.00,meteohub,2012-12-01 23:59:00,
2012-12-01 19:00:00,49.3,49.3,30.48,SE,135,4.0,7.0,0,0.00,,,0.00,meteohub,2012-12-02 00:00:00,
2012-12-01 19:03:00,49.3,49.3,30.48,SE,135,4.0,7.0,0,0.00,,,0.00,meteohub,2012-12-02 00:03:00,
2012-12-01 19:05:00,49.3,49.3,30.49,East,90,4.0,4.0,0,0.00,,,0.00,meteohub,2012-12-02 00:05:00,
2012-12-01 19:08:00,49.3,49.3,30.49,SE,135,3.0,4.0,0,0.00,,,0.00,meteohub,2012-12-02 00:08:00,
2012-12-01 19:10:00,49.3,49.3,30.48,SE,135,3.0,4.0,0,0.00,,,0.00,meteohub,2012-12-02 00:10:00,
2012-12-01 19:11:00,49.3,49.3,30.48,SE,135,3.0,4.0,0,0.00,,,0.00,meteohub,2012-12-02 00:11:00,
2012-12-01 19:15:00,49.1,49.1,30.48,East,90,4.0,4.0,0,0.00,,,0.00,meteohub,2012-12-02 00:15:00,
2012-12-01 19:16:00,49.1,49.1,30.48,East,90,4.0,4.0,0,0.00,,,0.00,meteohub,2012-12-02 00:16:00,
2012-12-01 19:20:00,49.1,49.1,30.48,East,90,4.0,4.0,0,0.00,,,0.00,meteohub,2012-12-02 00:20:00,
2012-12-01 19:21:00,49.1,49.1,30.49,East,90,4.0,4.0,0,0.00,,,0.00,meteohub,2012-12-02 00:21:00,
2012-12-01 19:22:00,49.1,49.1,30.48,East,90,4.0,4.0,0,0.00,,,0.00,meteohub,2012-12-02 00:22:00,
2012-12-01 19:25:00,48.7,48.7,30.48,SE,135,4.0,4.0,0,0.00,,,0.00,meteohub,2012-12-02 00:25:00,
2012-12-01 19:26:00,48.7,48.7,30.48,SE,135,4.0,4.0,0,0.00,,,0.00,meteohub,2012-12-02 00:26:00,
2012-12-01 19:27:00,48.7,48.7,30.48,SE,135,4.0,4.0,0,0.00,,,0.00,meteohub,2012-12-02 00:27:00,
2012-12-01 19:32:00,48.6,48.6,30.48,East,90,4.0,4.0,0,0.00,,,0.00,meteohub,2012-12-02 00:32:00,
2012-12-01 19:33:00,48.6,48.6,30.48,East,90,3.0,4.0,0,0.00,,,0.00,meteohub,2012-12-02 00:33:00,
2012-12-01 19:37:00,48.4,48.4,30.48,SE,135,4.0,4.0,0,0.00,,,0.00,meteohub,2012-12-02 00:37:00,
2012-12-01 19:38:00,48.2,48.2,30.48,SE,135,4.0,4.0,0,0.00,,,0.00,meteohub,2012-12-02 00:38:00,
2012-12-01 19:42:00,48.0,48.0,30.48,East,90,3.0,4.0,0,0.00,,,0.00,meteohub,2012-12-02 00:42:00,
2012-12-01 19:43:00,47.8,47.8,30.48,SE,135,3.0,4.0,0,0.00,,,0.00,meteohub,2012-12-02 00:43:00,
2012-12-01 19:48:00,47.7,47.7,30.48,SE,135,4.0,4.0,0,0.00,,,0.00,meteohub,2012-12-02 00:48:00,
2012-12-01 19:49:00,47.7,47.7,30.47,SE,135,4.0,4.0,0,0.00,,,0.00,meteohub,2012-12-02 00:49:00,
2012-12-01 19:53:00,47.5,47.5,30.47,SE,135,4.0,4.0,0,0.00,,,0.00,meteohub,2012-12-02 00:53:00,
2012-12-01 19:54:00,47.5,47.5,30.47,SE,135,3.0,4.0,0,0.00,,,0.00,meteohub,2012-12-02 00:54:00,
2012-12-01 19:59:00,47.1,47.1,30.47,East,90,4.0,4.0,0,0.00,,,0.00,meteohub,2012-12-02 00:59:00,
2012-12-01 20:00:00,47.1,47.1,30.47,East,90,4.0,4.0,0,0.00,,,0.00,meteohub,2012-12-02 01:00:00,
2012-12-01 20:04:00,47.1,47.1,30.47,East,90,4.0,4.0,0,0.00,,,0.00,meteohub,2012-12-02 01:04:00,
2012-12-01 20:05:00,47.1,47.1,30.47,East,90,4.0,4.0,0,0.00,,,0.00,meteohub,2012-12-02 01:05:00,
2012-12-01 20:09:00,46.9,46.9,30.47,SE,135,4.0,4.0,0,0.00,,,0.00,meteohub,2012-12-02 01:09:00,
2012-12-01 20:10:00,46.9,46.9,30.48,SE,135,4.0,4.0,0,0.00,,,0.00,meteohub,2012-12-02 01:10:00,
2012-12-01 20:11:00,46.9,46.9,30.48,SE,135,4.0,4.0,0,0.00,,,0.00,meteohub,2012-12-02 01:11:00,
2012-12-01 20:12:00,46.9,46.9,30.48,SE,135,4.0,4.0,0,0.00,,,0.00,meteohub,2012-12-02 01:12:00,
2012-12-01 20:16:00,47.1,47.1,30.47,SE,135,5.0,5.0,0,0.00,,,0.00,meteohub,2012-12-02 01:16:00,
2012-12-01 20:17:00,47.1,47.1,30.47,SE,135,5.0,5.0,0,0.00,,,0.00,meteohub,2012-12-02 01:17:00,
2012-12-01 20:22:00,47.1,47.1,30.47,SE,135,4.0,6.0,0,0.00,,,0.00,meteohub,2012-12-02 01:22:00,
2012-12-01 20:23:00,47.1,47.1,30.47,East,90,4.0,6.0,0,0.00,,,0.00,meteohub,2012-12-02 01:23:00,
2012-12-01 20:27:00,46.9,46.9,30.47,East,90,5.0,6.0,0,0.00,,,0.00,meteohub,2012-12-02 01:27:00,
2012-12-01 20:28:00,46.9,46.9,30.47,SE,135,5.0,6.0,0,0.00,,,0.00,meteohub,2012-12-02 01:28:00,
2012-12-01 20:32:00,46.9,46.9,30.47,SE,135,4.0,6.0,0,0.00,,,0.00,meteohub,2012-12-02 01:32:00,
2012-12-01 20:33:00,46.9,46.9,30.47,SE,135,4.0,6.0,0,0.00,,,0.00,meteohub,2012-12-02 01:33:00,
2012-12-01 20:34:00,46.9,46.9,30.47,East,90,3.0,6.0,0,0.00,,,0.00,meteohub,2012-12-02 01:34:00,
2012-12-01 20:37:00,46.8,46.8,30.47,SE,135,4.0,6.0,0,0.00,,,0.00,meteohub,2012-12-02 01:37:00,
2012-12-01 20:38:00,46.8,46.8,30.47,SE,135,4.0,6.0,0,0.00,,,0.00,meteohub,2012-12-02 01:38:00,
2012-12-01 20:39:00,46.8,46.8,30.47,SE,135,4.0,6.0,0,0.00,,,0.00,meteohub,2012-12-02 01:39:00,
2012-12-01 20:40:00,46.8,46.8,30.47,SE,135,4.0,6.0,0,0.00,,,0.00,meteohub,2012-12-02 01:40:00,
2012-12-01 20:43:00,46.8,46.8,30.47,South,180,4.0,6.0,0,0.00,,,0.00,meteohub,2012-12-02 01:43:00,
2012-12-01 20:44:00,46.8,46.8,30.47,SE,135,4.0,6.0,0,0.00,,,0.00,meteohub,2012-12-02 01:44:00,
2012-12-01 20:45:00,46.8,46.8,30.46,SE,135,4.0,5.0,0,0.00,,,0.00,meteohub,2012-12-02 01:45:00,
2012-12-01 20:48:00,46.8,46.8,30.47,SE,135,6.0,6.0,0,0.00,,,0.00,meteohub,2012-12-02 01:48:00,
2012-12-01 20:49:00,46.8,46.8,30.47,SE,135,4.0,5.0,0,0.00,,,0.00,meteohub,2012-12-02 01:49:00,
2012-12-01 20:50:00,46.9,46.9,30.47,SE,135,4.0,6.0,0,0.00,,,0.00,meteohub,2012-12-02 01:50:00,
2012-12-01 20:53:00,46.9,46.9,30.46,SE,135,4.0,6.0,0,0.00,,,0.00,meteohub,2012-12-02 01:53:00,
2012-12-01 20:55:00,46.9,46.9,30.46,SE,135,6.0,6.0,0,0.00,,,0.00,meteohub,2012-12-02 01:55:00,
2012-12-01 20:56:00,46.9,46.9,30.47,SE,135,4.0,6.0,0,0.00,,,0.00,meteohub,2012-12-02 01:56:00,
2012-12-01 20:59:00,46.9,46.9,30.46,SE,135,6.0,6.0,0,0.00,,,0.00,meteohub,2012-12-02 01:59:00,
2012-12-01 21:00:00,46.9,46.9,30.47,South,180,8.0,8.0,0,0.00,,,0.00,meteohub,2012-12-02 02:00:00,
2012-12-01 21:02:00,46.9,46.9,30.47,South,180,8.0,8.0,0,0.00,,,0.00,meteohub,2012-12-02 02:02:00,
2012-12-01 21:04:00,46.9,46.9,30.47,South,180,8.0,8.0,0,0.00,,,0.00,meteohub,2012-12-02 02:04:00,
2012-12-01 21:05:00,46.9,46.9,30.47,South,180,8.0,8.0,0,0.00,,,0.00,meteohub,2012-12-02 02:05:00,
2012-12-01 21:07:00,46.9,46.9,30.47,South,180,8.0,8.0,0,0.00,,,0.00,meteohub,2012-12-02 02:07:00,
2012-12-01 21:08:00,47.3,47.3,30.47,SE,135,6.0,8.0,0,0.00,,,0.00,meteohub,2012-12-02 02:08:00,
2012-12-01 21:09:00,47.3,47.3,30.47,SE,135,5.0,8.0,0,0.00,,,0.00,meteohub,2012-12-02 02:09:00,
2012-12-01 21:12:00,47.1,47.1,30.47,SE,135,4.0,8.0,0,0.00,,,0.00,meteohub,2012-12-02 02:12:00,
2012-12-01 21:14:00,47.1,47.1,30.47,SE,135,4.0,8.0,0,0.00,,,0.00,meteohub,2012-12-02 02:14:00,
2012-12-01 21:15:00,47.1,47.1,30.47,South,180,6.0,8.0,0,0.00,,,0.00,meteohub,2012-12-02 02:15:00,
2012-12-01 21:17:00,47.1,47.1,30.46,SE,135,6.0,8.0,0,0.00,,,0.00,meteohub,2012-12-02 02:17:00,
2012-12-01 21:18:00,47.1,47.1,30.47,SE,135,4.0,8.0,0,0.00,,,0.00,meteohub,2012-12-02 02:18:00,
2012-12-01 21:20:00,47.1,47.1,30.47,South,180,5.0,8.0,0,0.00,,,0.00,meteohub,2012-12-02 02:20:00,
2012-12-01 21:21:00,47.1,47.1,30.47,East,90,4.0,8.0,0,0.00,,,0.00,meteohub,2012-12-02 02:21:00,
2012-12-01 21:23:00,46.9,46.9,30.47,South,180,4.0,8.0,0,0.00,,,0.00,meteohub,2012-12-02 02:23:00,
2012-12-01 21:24:00,46.9,46.9,30.47,South,180,7.0,8.0,0,0.00,,,0.00,meteohub,2012-12-02 02:24:00,
2012-12-01 21:26:00,46.8,46.8,30.47,South,180,5.0,8.0,0,0.00,,,0.00,meteohub,2012-12-02 02:26:00,
2012-12-01 21:28:00,46.8,46.8,30.47,South,180,6.0,8.0,0,0.00,,,0.00,meteohub,2012-12-02 02:28:00,
2012-12-01 21:30:00,46.9,46.9,30.47,South,180,6.0,8.0,0,0.00,,,0.00,meteohub,2012-12-02 02:30:00,
2012-12-01 21:31:00,46.8,46.8,30.47,SE,135,5.0,8.0,0,0.00,,,0.00,meteohub,2012-12-02 02:31:00,
2012-12-01 21:35:00,46.9,46.9,30.47,SE,135,5.0,7.0,0,0.00,,,0.00,meteohub,2012-12-02 02:35:00,
2012-12-01 21:36:00,46.8,46.8,30.47,SE,135,4.0,7.0,0,0.00,,,0.00,meteohub,2012-12-02 02:36:00,
2012-12-01 21:37:00,46.8,46.8,30.47,East,90,5.0,7.0,0,0.00,,,0.00,meteohub,2012-12-02 02:37:00,
2012-12-01 21:40:00,46.9,46.9,30.47,SE,135,5.0,6.0,0,0.00,,,0.00,meteohub,2012-12-02 02:40:00,
2012-12-01 21:42:00,46.9,46.9,30.47,SE,135,5.0,6.0,0,0.00,,,0.00,meteohub,2012-12-02 02:42:00,
2012-12-01 21:45:00,46.8,46.8,30.47,SE,135,4.0,11.0,0,0.00,,,0.00,meteohub,2012-12-02 02:45:00,
2012-12-01 21:47:00,46.8,46.8,30.46,SE,135,6.0,11.0,0,0.00,,,0.00,meteohub,2012-12-02 02:47:00,
2012-12-01 21:48:00,46.8,46.8,30.47,SE,135,4.0,11.0,0,0.00,,,0.00,meteohub,2012-12-02 02:48:00,
2012-12-01 21:50:00,46.8,46.8,30.46,SE,135,4.0,11.0,0,0.00,,,0.00,meteohub,2012-12-02 02:50:00,
2012-12-01 21:53:00,46.6,46.6,30.46,SE,135,4.0,11.0,0,0.00,,,0.00,meteohub,2012-12-02 02:53:00,
2012-12-01 21:54:00,46.4,46.4,30.46,East,90,4.0,11.0,0,0.00,,,0.00,meteohub,2012-12-02 02:54:00,
2012-12-01 21:56:00,46.4,46.4,30.46,SE,135,4.0,11.0,0,0.00,,,0.00,meteohub,2012-12-02 02:56:00,
2012-12-01 21:58:00,46.2,46.2,30.46,SE,135,4.0,11.0,0,0.00,,,0.00,meteohub,2012-12-02 02:58:00,
2012-12-01 21:59:00,46.2,46.2,30.46,SE,135,3.0,11.0,0,0.00,,,0.00,meteohub,2012-12-02 02:59:00,
2012-12-01 22:02:00,46.2,46.2,30.47,SE,135,4.0,8.0,0,0.00,,,0.00,meteohub,2012-12-02 03:02:00,
2012-12-01 22:03:00,46.2,46.2,30.47,SE,135,4.0,8.0,0,0.00,,,0.00,meteohub,2012-12-02 03:03:00,
2012-12-01 22:05:00,46.2,46.2,30.46,SE,135,4.0,6.0,0,0.00,,,0.00,meteohub,2012-12-02 03:05:00,
2012-12-01 22:09:00,46.0,46.0,30.46,South,180,4.0,6.0,0,0.00,,,0.00,meteohub,2012-12-02 03:09:00,
2012-12-01 22:10:00,46.0,46.0,30.46,SE,135,4.0,6.0,0,0.00,,,0.00,meteohub,2012-12-02 03:10:00,
2012-12-01 22:14:00,45.9,45.9,30.46,South,180,4.0,6.0,0,0.00,,,0.00,meteohub,2012-12-02 03:14:00,
2012-12-01 22:15:00,45.9,45.9,30.46,SE,135,4.0,4.0,0,0.00,,,0.00,meteohub,2012-12-02 03:15:00,
2012-12-01 22:20:00,45.9,45.9,30.46,SE,135,6.0,6.0,0,0.00,,,0.00,meteohub,2012-12-02 03:20:00,
2012-12-01 22:21:00,45.9,45.9,30.46,SE,135,5.0,5.0,0,0.00,,,0.00,meteohub,2012-12-02 03:21:00,
2012-12-01 22:26:00,46.0,46.0,30.46,South,180,4.0,6.0,0,0.00,,,0.00,meteohub,2012-12-02 03:26:00,
2012-12-01 22:27:00,46.0,46.0,30.46,SE,135,4.0,6.0,0,0.00,,,0.00,meteohub,2012-12-02 03:27:00,
2012-12-01 22:31:00,45.9,45.9,30.45,SE,135,4.0,6.0,0,0.00,,,0.00,meteohub,2012-12-02 03:31:00,
2012-12-01 22:32:00,46.0,46.0,30.46,SE,135,6.0,6.0,0,0.00,,,0.00,meteohub,2012-12-02 03:32:00,
2012-12-01 22:36:00,46.0,46.0,30.46,SE,135,4.0,6.0,0,0.00,,,0.00,meteohub,2012-12-02 03:36:00,
2012-12-01 22:37:00,46.0,46.0,30.46,SE,135,4.0,6.0,0,0.00,,,0.00,meteohub,2012-12-02 03:37:00,
2012-12-01 22:38:00,46.0,46.0,30.46,SE,135,4.0,6.0,0,0.00,,,0.00,meteohub,2012-12-02 03:38:00,
2012-12-01 22:42:00,46.0,46.0,30.46,East,90,4.0,6.0,0,0.00,,,0.00,meteohub,2012-12-02 03:42:00,
2012-12-01 22:43:00,46.2,46.2,30.46,East,90,4.0,6.0,0,0.00,,,0.00,meteohub,2012-12-02 03:43:00,
2012-12-01 22:45:00,46.0,46.0,30.46,SE,135,4.0,6.0,0,0.00,,,0.00,meteohub,2012-12-02 03:45:00,
2012-12-01 22:47:00,46.0,46.0,30.46,SE,135,4.0,6.0,0,0.00,,,0.00,meteohub,2012-12-02 03:47:00,
2012-12-01 22:48:00,46.0,46.0,30.46,SE,135,4.0,6.0,0,0.00,,,0.00,meteohub,2012-12-02 03:48:00,
2012-12-01 22:49:00,46.0,46.0,30.46,South,180,5.0,6.0,0,0.00,,,0.00,meteohub,2012-12-02 03:49:00,
2012-12-01 22:52:00,46.0,46.0,30.46,SE,135,4.0,6.0,0,0.00,,,0.00,meteohub,2012-12-02 03:52:00,
2012-12-01 22:53:00,46.0,46.0,30.45,SE,135,6.0,6.0,0,0.00,,,0.00,meteohub,2012-12-02 03:53:00,
2012-12-01 22:54:00,46.0,46.0,30.46,East,90,4.0,6.0,0,0.00,,,0.00,meteohub,2012-12-02 03:54:00,
2012-12-01 22:57:00,46.0,46.0,30.46,SE,135,4.0,6.0,0,0.00,,,0.00,meteohub,2012-12-02 03:57:00,
2012-12-01 22:58:00,46.0,46.0,30.46,SE,135,4.0,6.0,0,0.00,,,0.00,meteohub,2012-12-02 03:58:00,
2012-12-01 22:59:00,46.0,46.0,30.46,SE,135,4.0,6.0,0,0.00,,,0.00,meteohub,2012-12-02 03:59:00,
2012-12-01 23:04:00,46.0,46.0,30.45,SE,135,4.0,6.0,0,0.00,,,0.00,meteohub,2012-12-02 04:04:00,
2012-12-01 23:05:00,46.0,46.0,30.45,SE,135,4.0,6.0,0,0.00,,,0.00,meteohub,2012-12-02 04:05:00,
2012-12-01 23:09:00,45.9,45.9,30.45,SE,135,7.0,7.0,0,0.00,,,0.00,meteohub,2012-12-02 04:09:00,
2012-12-01 23:10:00,45.9,45.9,30.45,SE,135,4.0,4.0,0,0.00,,,0.00,meteohub,2012-12-02 04:10:00,
2012-12-01 23:14:00,45.7,45.7,30.45,SE,135,4.0,4.0,0,0.00,,,0.00,meteohub,2012-12-02 04:14:00,
2012-12-01 23:15:00,45.7,45.7,30.45,SE,135,4.0,7.0,0,0.00,,,0.00,meteohub,2012-12-02 04:15:00,
2012-12-01 23:19:00,45.5,45.5,30.45,SE,135,3.0,7.0,0,0.00,,,0.00,meteohub,2012-12-02 04:19:00,
2012-12-01 23:20:00,45.5,45.5,30.45,SSE,158,4.0,7.0,0,0.00,,,0.00,meteohub,2012-12-02 04:20:00,
2012-12-01 23:21:00,45.5,45.5,30.45,SSE,158,4.0,7.0,0,0.00,,,0.00,meteohub,2012-12-02 04:21:00,
2012-12-01 23:23:00,45.5,45.5,30.46,East,90,5.0,7.0,0,0.00,,,0.00,meteohub,2012-12-02 04:23:00,
2012-12-01 23:25:00,45.5,45.5,30.46,SE,135,3.0,4.0,0,0.00,,,0.00,meteohub,2012-12-02 04:25:00,
2012-12-01 23:26:00,45.3,45.3,30.46,SE,135,3.0,4.0,0,0.00,,,0.00,meteohub,2012-12-02 04:26:00,
2012-12-01 23:28:00,45.3,45.3,30.45,SE,135,3.0,4.0,0,0.00,,,0.00,meteohub,2012-12-02 04:28:00,
2012-12-01 23:30:00,45.3,45.3,30.46,East,90,4.0,5.0,0,0.00,,,0.00,meteohub,2012-12-02 04:30:00,
2012-12-01 23:31:00,45.3,45.3,30.46,SE,135,3.0,5.0,0,0.00,,,0.00,meteohub,2012-12-02 04:31:00,
2012-12-01 23:32:00,45.1,45.1,30.45,SE,135,5.0,5.0,0,0.00,,,0.00,meteohub,2012-12-02 04:32:00,
2012-12-01 23:33:00,45.1,45.1,30.45,SE,135,3.0,5.0,0,0.00,,,0.00,meteohub,2012-12-02 04:33:00,
2012-12-01 23:35:00,45.1,45.1,30.45,East,90,3.0,5.0,0,0.00,,,0.00,meteohub,2012-12-02 04:35:00,
2012-12-01 23:36:00,45.1,45.1,30.45,East,90,3.0,5.0,0,0.00,,,0.00,meteohub,2012-12-02 04:36:00,
2012-12-01 23:38:00,45.0,45.0,30.45,East,90,3.0,5.0,0,0.00,,,0.00,meteohub,2012-12-02 04:38:00,
2012-12-01 23:39:00,45.0,45.0,30.46,SE,135,3.0,5.0,0,0.00,,,0.00,meteohub,2012-12-02 04:39:00,
2012-12-01 23:42:00,45.0,45.0,30.46,SE,135,3.0,5.0,0,0.00,,,0.00,meteohub,2012-12-02 04:42:00,
2012-12-01 23:43:00,44.8,-8.5,30.45,SE,135,4.0,5.0,10,0.00,,,0.00,meteohub,2012-12-02 04:43:00,
2012-12-01 23:45:00,44.6,-8.7,30.46,East,90,3.0,5.0,10,0.00,,,0.00,meteohub,2012-12-02 04:45:00,
2012-12-01 23:47:00,44.4,-8.9,30.45,SE,135,3.0,5.0,10,0.00,,,0.00,meteohub,2012-12-02 04:47:00,
2012-12-01 23:48:00,44.4,-6.9,30.45,East,90,4.0,5.0,11,0.00,,,0.00,meteohub,2012-12-02 04:48:00,
2012-12-01 23:49:00,44.4,-6.9,30.45,SE,135,3.0,5.0,11,0.00,,,0.00,meteohub,2012-12-02 04:49:00,
2012-12-01 23:51:00,44.2,-7.1,30.45,SE,135,4.0,4.0,11,0.00,,,0.00,meteohub,2012-12-02 04:51:00,
2012-12-01 23:53:00,44.1,-7.1,30.46,East,90,3.0,4.0,11,0.00,,,0.00,meteohub,2012-12-02 04:53:00,
2012-12-01 23:56:00,44.1,-5.3,30.46,SE,135,3.0,4.0,12,0.00,,,0.00,meteohub,2012-12-02 04:56:00,
2012-12-01 23:57:00,44.1,-5.3,30.46,SE,135,3.0,4.0,12,0.00,,,0.00,meteohub,2012-12-02 04:57:00,
2012-12-01 23:59:00,43.9,-5.4,30.46,SE,135,3.0,4.0,12,0.00,,,0.00,meteohub,2012-12-02 04:59:00,